Observation data for Weinert on 11/16/2019      Previous  Date       Current Mesonet Observations  Soil Data  Daily Summary Page  Observations in Plain Language
KWE1 160600Z 18008KT 07/M01 A3022 RMK A01 T00731010  RH  056%=      5-min Rain = 0
KWE1 160601Z 18008KT 07/M01 A3022 RMK A01 T00731010  RH  056%=      5-min Rain = 0
KWE1 160602Z 17009KT 07/M01 A3022 RMK A01 T00721010  RH  056%=      5-min Rain = 0
KWE1 160603Z 18008KT 07/M01 A3022 RMK A01 T00721010  RH  056%=      5-min Rain = 0
KWE1 160604Z 18008KT 07/M01 A3022 RMK A01 T00721010  RH  056%=      5-min Rain = 0
KWE1 160605Z 18009KT 07/M01 A3022 RMK A01 T00711010  RH  057%=      5-min Rain = 0
KWE1 160606Z 18009KT 07/M01 A3022 RMK A01 T00701010  RH  057%=      5-min Rain = 0
KWE1 160607Z 18009KT 07/M01 A3022 RMK A01 T00701010  RH  057%=      5-min Rain = 0
KWE1 160608Z 18009KT 07/M01 A3022 RMK A01 T00701010  RH  057%=      5-min Rain = 0
KWE1 160609Z 18009KT 07/M01 A3022 RMK A01 T00701010  RH  057%=      5-min Rain = 0
KWE1 160610Z 18008KT 07/M01 A3022 RMK A01 T00701010  RH  057%=      5-min Rain = 0
KWE1 160611Z 18008KT 07/M01 A3022 RMK A01 T00691010  RH  057%=      5-min Rain = 0
KWE1 160612Z 18009KT 07/M01 A3022 RMK A01 T00691010  RH  057%=      5-min Rain = 0
KWE1 160613Z 18009KT 07/M01 A3022 RMK A01 T00681010  RH  058%=      5-min Rain = 0
KWE1 160614Z 18010KT 07/M01 A3022 RMK A01 T00681009  RH  058%=      5-min Rain = 0
KWE1 160615Z 18010KT 07/M01 A3022 RMK A01 T00681009  RH  058%=      5-min Rain = 0
KWE1 160616Z 18009KT 07/M01 A3021 RMK A01 T00681009  RH  058%=      5-min Rain = 0
KWE1 160617Z 18010KT 07/M01 A3021 RMK A01 T00681009  RH  058%=      5-min Rain = 0
KWE1 160618Z 18009KT 07/M01 A3021 RMK A01 T00701009  RH  057%=      5-min Rain = 0
KWE1 160619Z 18009KT 07/M01 A3021 RMK A01 T00721009  RH  056%=      5-min Rain = 0
KWE1 160620Z 19009KT 07/M01 A3021 RMK A01 T00731010  RH  056%=      5-min Rain = 0
KWE1 160621Z 18009KT 07/M01 A3021 RMK A01 T00741010  RH  055%=      5-min Rain = 0
KWE1 160622Z 18010KT 08/M01 A3021 RMK A01 T00751010  RH  055%=      5-min Rain = 0
KWE1 160623Z 18009KT 08/M01 A3021 RMK A01 T00751010  RH  055%=      5-min Rain = 0
KWE1 160624Z 18008KT 08/M01 A3021 RMK A01 T00751010  RH  055%=      5-min Rain = 0
KWE1 160625Z 18009KT 08/M01 A3021 RMK A01 T00751010  RH  055%=      5-min Rain = 0
KWE1 160626Z 18009KT 07/M01 A3021 RMK A01 T00741010  RH  055%=      5-min Rain = 0
KWE1 160627Z 18009KT 07/M01 A3021 RMK A01 T00731010  RH  055%=      5-min Rain = 0
KWE1 160628Z 18009KT 07/M01 A3021 RMK A01 T00741009  RH  056%=      5-min Rain = 0
KWE1 160629Z 18008KT 07/M01 A3021 RMK A01 T00731009  RH  056%=      5-min Rain = 0
KWE1 160630Z 18009KT 07/M01 A3021 RMK A01 T00731009  RH  056%=      5-min Rain = 0
KWE1 160631Z 18009KT 07/M01 A3021 RMK A01 T00721010  RH  056%=      5-min Rain = 0
KWE1 160632Z 18009KT 07/M01 A3021 RMK A01 T00721009  RH  056%=      5-min Rain = 0
KWE1 160633Z 18009KT 07/M01 A3021 RMK A01 T00721010  RH  056%=      5-min Rain = 0
KWE1 160634Z 19008KT 07/M01 A3021 RMK A01 T00711009  RH  056%=      5-min Rain = 0
KWE1 160635Z 18009KT 07/M01 A3021 RMK A01 T00711010  RH  056%=      5-min Rain = 0
KWE1 160636Z 18009KT 07/M01 A3021 RMK A01 T00711009  RH  056%=      5-min Rain = 0
KWE1 160637Z 18009KT 07/M01 A3021 RMK A01 T00711010  RH  056%=      5-min Rain = 0
KWE1 160638Z 18009KT 07/M01 A3021 RMK A01 T00721010  RH  056%=      5-min Rain = 0
KWE1 160639Z 18009KT 07/M01 A3021 RMK A01 T00721009  RH  056%=      5-min Rain = 0
KWE1 160640Z 18010KT 07/M01 A3021 RMK A01 T00721010  RH  056%=      5-min Rain = 0
KWE1 160641Z 18009KT 07/M01 A3021 RMK A01 T00721010  RH  056%=      5-min Rain = 0
KWE1 160642Z 18011KT 07/M01 A3021 RMK A01 T00721009  RH  056%=      5-min Rain = 0
KWE1 160643Z 18010KT 07/M01 A3021 RMK A01 T00721010  RH  056%=      5-min Rain = 0
KWE1 160644Z 18009KT 07/M01 A3021 RMK A01 T00711009  RH  057%=      5-min Rain = 0
KWE1 160645Z 18010KT 07/M01 A3021 RMK A01 T00701010  RH  057%=      5-min Rain = 0
KWE1 160646Z 18009KT 07/M01 A3021 RMK A01 T00701009  RH  057%=      5-min Rain = 0
KWE1 160647Z 19009KT 07/M01 A3021 RMK A01 T00691009  RH  057%=      5-min Rain = 0
KWE1 160648Z 18009KT 07/M01 A3021 RMK A01 T00691009  RH  058%=      5-min Rain = 0
KWE1 160649Z 19009KT 07/M01 A3021 RMK A01 T00681009  RH  058%=      5-min Rain = 0
KWE1 160650Z 19010KT 07/M01 A3021 RMK A01 T00671009  RH  058%=      5-min Rain = 0
KWE1 160651Z 18009KT 07/M01 A3021 RMK A01 T00671009  RH  058%=      5-min Rain = 0
KWE1 160652Z 18009KT 07/M01 A3021 RMK A01 T00671009  RH  058%=      5-min Rain = 0
KWE1 160653Z 18009KT 07/M01 A3021 RMK A01 T00661009  RH  059%=      5-min Rain = 0
KWE1 160654Z 18008KT 07/M01 A3021 RMK A01 T00661009  RH  059%=      5-min Rain = 0
KWE1 160655Z 18009KT 07/M01 A3021 RMK A01 T00651008  RH  059%=      5-min Rain = 0
KWE1 160656Z 18009KT 07/M01 A3021 RMK A01 T00651008  RH  060%=      5-min Rain = 0
KWE1 160657Z 18009KT 06/M01 A3021 RMK A01 T00641008  RH  060%=      5-min Rain = 0
KWE1 160658Z 18009KT 06/M01 A3021 RMK A01 T00641008  RH  060%=      5-min Rain = 0
KWE1 160659Z 18009KT 06/M01 A302 RMK A01 T00641008  RH  060%=      5-min Rain = 0
KWE1 160700Z 18009KT 06/M01 A302 RMK A01 T00641008  RH  060%=      5-min Rain = 0
KWE1 160701Z 18009KT 06/M01 A302 RMK A01 T00641009  RH  060%=      5-min Rain = 0
KWE1 160702Z 18009KT 06/M01 A302 RMK A01 T00641008  RH  060%=      5-min Rain = 0
KWE1 160703Z 19009KT 06/M01 A302 RMK A01 T00641008  RH  060%=      5-min Rain = 0
KWE1 160704Z 18010KT 06/M01 A302 RMK A01 T00641008  RH  060%=      5-min Rain = 0
KWE1 160705Z 18010KT 06/M01 A302 RMK A01 T00641008  RH  060%=      5-min Rain = 0
KWE1 160706Z 18008KT 06/M01 A302 RMK A01 T00641008  RH  060%=      5-min Rain = 0
KWE1 160707Z 17009KT 06/M01 A302 RMK A01 T00641008  RH  060%=      5-min Rain = 0
KWE1 160708Z 18009KT 06/M01 A302 RMK A01 T00641008  RH  060%=      5-min Rain = 0
KWE1 160709Z 18009KT 06/M01 A302 RMK A01 T00641008  RH  060%=      5-min Rain = 0
KWE1 160710Z 18009KT 06/M01 A302 RMK A01 T00641008  RH  060%=      5-min Rain = 0
KWE1 160711Z 18009KT 06/M01 A302 RMK A01 T00641008  RH  060%=      5-min Rain = 0
KWE1 160712Z 18009KT 06/M01 A302 RMK A01 T00631008  RH  060%=      5-min Rain = 0
KWE1 160713Z 18008KT 06/M01 A302 RMK A01 T00631008  RH  061%=      5-min Rain = 0
KWE1 160714Z 18009KT 06/M01 A302 RMK A01 T00631008  RH  061%=      5-min Rain = 0
KWE1 160715Z 18009KT 06/M01 A302 RMK A01 T00631008  RH  061%=      5-min Rain = 0
KWE1 160716Z 18010KT 06/M01 A302 RMK A01 T00621008  RH  061%=      5-min Rain = 0
KWE1 160717Z 18010KT 06/M01 A302 RMK A01 T00631008  RH  061%=      5-min Rain = 0
KWE1 160718Z 18010KT 06/M01 A302 RMK A01 T00621008  RH  061%=      5-min Rain = 0
KWE1 160719Z 18011KT 06/M01 A302 RMK A01 T00631008  RH  061%=      5-min Rain = 0
KWE1 160720Z 18011KT 06/M01 A302 RMK A01 T00631008  RH  061%=      5-min Rain = 0
KWE1 160721Z 18011KT 06/M01 A302 RMK A01 T00631008  RH  060%=      5-min Rain = 0
KWE1 160722Z 18012KT 06/M01 A302 RMK A01 T00641008  RH  060%=      5-min Rain = 0
KWE1 160723Z 18011KT 07/M01 A302 RMK A01 T00651008  RH  060%=      5-min Rain = 0
KWE1 160724Z 18011KT 07/M01 A302 RMK A01 T00651008  RH  060%=      5-min Rain = 0
KWE1 160725Z 18011KT 07/M01 A302 RMK A01 T00651008  RH  059%=      5-min Rain = 0
KWE1 160726Z 18011KT 07/M01 A302 RMK A01 T00651008  RH  059%=      5-min Rain = 0
KWE1 160727Z 18011KT 07/M01 A302 RMK A01 T00651008  RH  060%=      5-min Rain = 0
KWE1 160728Z 18011KT 07/M01 A302 RMK A01 T00651008  RH  060%=      5-min Rain = 0
KWE1 160729Z 18010KT 07/M01 A302 RMK A01 T00651008  RH  060%=      5-min Rain = 0
KWE1 160730Z 18010KT 07/M01 A302 RMK A01 T00651008  RH  060%=      5-min Rain = 0
KWE1 160731Z 18009KT 06/M01 A302 RMK A01 T00641008  RH  060%=      5-min Rain = 0
KWE1 160732Z 18008KT 06/M01 A302 RMK A01 T00631008  RH  060%=      5-min Rain = 0
KWE1 160733Z 18008KT 06/M01 A302 RMK A01 T00631008  RH  061%=      5-min Rain = 0
KWE1 160734Z 18008KT 06/M01 A302 RMK A01 T00621008  RH  061%=      5-min Rain = 0
KWE1 160735Z 18007KT 06/M01 A302 RMK A01 T00611008  RH  061%=      5-min Rain = 0
KWE1 160736Z 17008KT 06/M01 A302 RMK A01 T00601008  RH  062%=      5-min Rain = 0
KWE1 160737Z 17008KT 06/M01 A302 RMK A01 T00601008  RH  062%=      5-min Rain = 0
KWE1 160738Z 17008KT 06/M01 A302 RMK A01 T00591008  RH  062%=      5-min Rain = 0
KWE1 160739Z 17007KT 06/M01 A302 RMK A01 T00591008  RH  062%=      5-min Rain = 0
KWE1 160740Z 17008KT 06/M01 A302 RMK A01 T00581008  RH  063%=      5-min Rain = 0
KWE1 160741Z 17007KT 06/M01 A3019 RMK A01 T00581008  RH  063%=      5-min Rain = 0
KWE1 160742Z 17006KT 06/M01 A3019 RMK A01 T00571008  RH  063%=      5-min Rain = 0
KWE1 160743Z 16006KT 06/M01 A3019 RMK A01 T00561008  RH  063%=      5-min Rain = 0
KWE1 160744Z 16006KT 06/M01 A3019 RMK A01 T00551008  RH  064%=      5-min Rain = 0
KWE1 160745Z 16007KT 06/M01 A3019 RMK A01 T00551008  RH  064%=      5-min Rain = 0
KWE1 160746Z 16007KT 05/M01 A3019 RMK A01 T00541008  RH  064%=      5-min Rain = 0
KWE1 160747Z 17008KT 05/M01 A3019 RMK A01 T00541007  RH  064%=      5-min Rain = 0
KWE1 160748Z 17007KT 05/M01 A3019 RMK A01 T00541008  RH  064%=      5-min Rain = 0
KWE1 160749Z 17008KT 05/M01 A3019 RMK A01 T00541008  RH  064%=      5-min Rain = 0
KWE1 160750Z 17008KT 05/M01 A3019 RMK A01 T00541008  RH  064%=      5-min Rain = 0
KWE1 160751Z 17008KT 06/M01 A3019 RMK A01 T00551008  RH  064%=      5-min Rain = 0
KWE1 160752Z 17008KT 06/M01 A3019 RMK A01 T00551008  RH  064%=      5-min Rain = 0
KWE1 160753Z 17007KT 06/M01 A3019 RMK A01 T00561008  RH  064%=      5-min Rain = 0
KWE1 160754Z 17008KT 06/M01 A3019 RMK A01 T00561008  RH  063%=      5-min Rain = 0
KWE1 160755Z 17008KT 06/M01 A3019 RMK A01 T00561008  RH  063%=      5-min Rain = 0
KWE1 160756Z 16008KT 06/M01 A3019 RMK A01 T00571008  RH  063%=      5-min Rain = 0
KWE1 160757Z 16009KT 06/M01 A3019 RMK A01 T00571008  RH  063%=      5-min Rain = 0
KWE1 160758Z 17008KT 06/M01 A3019 RMK A01 T00571008  RH  063%=      5-min Rain = 0
KWE1 160759Z 17008KT 06/M01 A3019 RMK A01 T00571009  RH  063%=      5-min Rain = 0
KWE1 160800Z 17008KT 06/M01 A3019 RMK A01 T00571009  RH  062%=      5-min Rain = 0
KWE1 160801Z 17009KT 06/M01 A3019 RMK A01 T00581008  RH  062%=      5-min Rain = 0
KWE1 160802Z 16008KT 06/M01 A3019 RMK A01 T00581009  RH  062%=      5-min Rain = 0
KWE1 160803Z 17009KT 06/M01 A3019 RMK A01 T00581009  RH  062%=      5-min Rain = 0
KWE1 160804Z 17008KT 06/M01 A3019 RMK A01 T00581009  RH  062%=      5-min Rain = 0
KWE1 160805Z 17008KT 06/M01 A3019 RMK A01 T00581008  RH  062%=      5-min Rain = 0
KWE1 160806Z 17007KT 06/M01 A3019 RMK A01 T00571009  RH  063%=      5-min Rain = 0
KWE1 160807Z 17008KT 06/M01 A3019 RMK A01 T00571008  RH  063%=      5-min Rain = 0
KWE1 160808Z 17006KT 06/M01 A3019 RMK A01 T00581008  RH  063%=      5-min Rain = 0
KWE1 160809Z 17007KT 06/M01 A3019 RMK A01 T00571009  RH  063%=      5-min Rain = 0
KWE1 160810Z 17007KT 06/M01 A3019 RMK A01 T00571008  RH  063%=      5-min Rain = 0
KWE1 160811Z 16007KT 06/M01 A3019 RMK A01 T00571008  RH  063%=      5-min Rain = 0
KWE1 160812Z 16007KT 06/M01 A3019 RMK A01 T00561009  RH  063%=      5-min Rain = 0
KWE1 160813Z 17006KT 06/M01 A3019 RMK A01 T00571009  RH  063%=      5-min Rain = 0
KWE1 160814Z 17007KT 06/M01 A3019 RMK A01 T00561009  RH  063%=      5-min Rain = 0
KWE1 160815Z 17006KT 06/M01 A3019 RMK A01 T00561009  RH  063%=      5-min Rain = 0
KWE1 160816Z 16006KT 06/M01 A3019 RMK A01 T00561009  RH  063%=      5-min Rain = 0
KWE1 160817Z 17007KT 06/M01 A3019 RMK A01 T00551009  RH  063%=      5-min Rain = 0
KWE1 160818Z 17007KT 06/M01 A3019 RMK A01 T00551009  RH  063%=      5-min Rain = 0
KWE1 160819Z 16007KT 06/M01 A3019 RMK A01 T00551009  RH  063%=      5-min Rain = 0
KWE1 160820Z 17007KT 06/M01 A3019 RMK A01 T00551009  RH  063%=      5-min Rain = 0
KWE1 160821Z 17007KT 06/M01 A3019 RMK A01 T00551009  RH  063%=      5-min Rain = 0
KWE1 160822Z 17006KT 06/M01 A3019 RMK A01 T00551009  RH  063%=      5-min Rain = 0
KWE1 160823Z 17007KT 06/M01 A3019 RMK A01 T00551009  RH  063%=      5-min Rain = 0
KWE1 160824Z 17007KT 06/M01 A3019 RMK A01 T00561009  RH  063%=      5-min Rain = 0
KWE1 160825Z 17007KT 06/M01 A3019 RMK A01 T00571009  RH  063%=      5-min Rain = 0
KWE1 160826Z 18007KT 06/M01 A3019 RMK A01 T00571009  RH  062%=      5-min Rain = 0
KWE1 160827Z 17007KT 06/M01 A3019 RMK A01 T00581009  RH  062%=      5-min Rain = 0
KWE1 160828Z 18008KT 06/M01 A3019 RMK A01 T00601009  RH  061%=      5-min Rain = 0
KWE1 160829Z 17008KT 06/M01 A3019 RMK A01 T00611009  RH  061%=      5-min Rain = 0
KWE1 160830Z 17008KT 06/M01 A3019 RMK A01 T00631009  RH  060%=      5-min Rain = 0
KWE1 160831Z 17008KT 06/M01 A3019 RMK A01 T00641009  RH  060%=      5-min Rain = 0
KWE1 160832Z 17008KT 06/M01 A3019 RMK A01 T00641009  RH  059%=      5-min Rain = 0
KWE1 160833Z 17007KT 07/M01 A3019 RMK A01 T00651009  RH  059%=      5-min Rain = 0
KWE1 160834Z 17006KT 07/M01 A3019 RMK A01 T00651009  RH  059%=      5-min Rain = 0
KWE1 160835Z 17006KT 07/M01 A3019 RMK A01 T00651009  RH  059%=      5-min Rain = 0
KWE1 160836Z 17006KT 06/M01 A3019 RMK A01 T00641009  RH  059%=      5-min Rain = 0
KWE1 160837Z 17008KT 06/M01 A3019 RMK A01 T00641009  RH  059%=      5-min Rain = 0
KWE1 160838Z 17007KT 07/M01 A3019 RMK A01 T00651009  RH  059%=      5-min Rain = 0
KWE1 160839Z 18008KT 07/M01 A3019 RMK A01 T00651009  RH  059%=      5-min Rain = 0
KWE1 160840Z 18007KT 07/M01 A3019 RMK A01 T00651009  RH  059%=      5-min Rain = 0
KWE1 160841Z 18008KT 07/M01 A3019 RMK A01 T00661009  RH  059%=      5-min Rain = 0
KWE1 160842Z 18007KT 07/M01 A3019 RMK A01 T00661009  RH  059%=      5-min Rain = 0
KWE1 160843Z 18006KT 07/M01 A3019 RMK A01 T00661009  RH  059%=      5-min Rain = 0
KWE1 160844Z 18006KT 07/M01 A3019 RMK A01 T00661009  RH  059%=      5-min Rain = 0
KWE1 160845Z 18006KT 07/M01 A3019 RMK A01 T00661009  RH  059%=      5-min Rain = 0
KWE1 160846Z 18006KT 07/M01 A3019 RMK A01 T00661009  RH  059%=      5-min Rain = 0
KWE1 160847Z 18007KT 07/M01 A3019 RMK A01 T00661009  RH  059%=      5-min Rain = 0
KWE1 160848Z 18007KT 07/M01 A3019 RMK A01 T00671009  RH  058%=      5-min Rain = 0
KWE1 160849Z 18006KT 07/M01 A3019 RMK A01 T00681009  RH  058%=      5-min Rain = 0
KWE1 160850Z 18006KT 07/M01 A3019 RMK A01 T00681008  RH  058%=      5-min Rain = 0
KWE1 160851Z 19006KT 07/M01 A3019 RMK A01 T00681009  RH  058%=      5-min Rain = 0
KWE1 160852Z 19006KT 07/M01 A3019 RMK A01 T00681008  RH  058%=      5-min Rain = 0
KWE1 160853Z 19006KT 07/M01 A3019 RMK A01 T00671009  RH  058%=      5-min Rain = 0
KWE1 160854Z 19006KT 07/M01 A3019 RMK A01 T00671009  RH  059%=      5-min Rain = 0
KWE1 160855Z 19007KT 07/M01 A3019 RMK A01 T00671009  RH  059%=      5-min Rain = 0
KWE1 160856Z 18007KT 07/M01 A3019 RMK A01 T00671009  RH  058%=      5-min Rain = 0
KWE1 160857Z 18007KT 07/M01 A3019 RMK A01 T00681008  RH  058%=      5-min Rain = 0
KWE1 160858Z 18006KT 07/M01 A3019 RMK A01 T00681009  RH  058%=      5-min Rain = 0
KWE1 160859Z 18007KT 07/M01 A3019 RMK A01 T00681009  RH  058%=      5-min Rain = 0
KWE1 160900Z 18006KT 07/M01 A3019 RMK A01 T00681009  RH  058%=      5-min Rain = 0
KWE1 160901Z 18006KT 07/M01 A3019 RMK A01 T00681008  RH  058%=      5-min Rain = 0
KWE1 160902Z 18006KT 07/M01 A3019 RMK A01 T00671009  RH  058%=      5-min Rain = 0
KWE1 160903Z 18006KT 07/M01 A3019 RMK A01 T00661009  RH  059%=      5-min Rain = 0
KWE1 160904Z 18006KT 07/M01 A3019 RMK A01 T00661008  RH  059%=      5-min Rain = 0
KWE1 160905Z 18007KT 07/M01 A3019 RMK A01 T00661009  RH  059%=      5-min Rain = 0
KWE1 160906Z 18006KT 07/M01 A3019 RMK A01 T00661008  RH  059%=      5-min Rain = 0
KWE1 160907Z 18007KT 07/M01 A3019 RMK A01 T00661009  RH  059%=      5-min Rain = 0
KWE1 160908Z 18007KT 07/M01 A3019 RMK A01 T00661009  RH  059%=      5-min Rain = 0
KWE1 160909Z 18007KT 07/M01 A3019 RMK A01 T00661009  RH  059%=      5-min Rain = 0
KWE1 160910Z 18006KT 07/M01 A3019 RMK A01 T00661008  RH  059%=      5-min Rain = 0
KWE1 160911Z 18007KT 07/M01 A3019 RMK A01 T00661008  RH  059%=      5-min Rain = 0
KWE1 160912Z 18007KT 07/M01 A3019 RMK A01 T00671008  RH  059%=      5-min Rain = 0
KWE1 160913Z 18007KT 07/M01 A3019 RMK A01 T00681008  RH  058%=      5-min Rain = 0
KWE1 160914Z 18007KT 07/M01 A3019 RMK A01 T00691008  RH  058%=      5-min Rain = 0
KWE1 160915Z 17008KT 07/M01 A3019 RMK A01 T00691008  RH  058%=      5-min Rain = 0
KWE1 160916Z 17007KT 07/M01 A3019 RMK A01 T00701008  RH  058%=      5-min Rain = 0
KWE1 160917Z 18008KT 07/M01 A3019 RMK A01 T00701008  RH  057%=      5-min Rain = 0
KWE1 160918Z 17009KT 07/M01 A3019 RMK A01 T00711008  RH  057%=      5-min Rain = 0
KWE1 160919Z 18007KT 07/M01 A3019 RMK A01 T00711008  RH  057%=      5-min Rain = 0
KWE1 160920Z 17008KT 07/M01 A3019 RMK A01 T00721008  RH  057%=      5-min Rain = 0
KWE1 160921Z 17009KT 07/M01 A3019 RMK A01 T00721008  RH  057%=      5-min Rain = 0
KWE1 160922Z 18008KT 07/M01 A3018 RMK A01 T00721008  RH  057%=      5-min Rain = 0
KWE1 160923Z 17007KT 07/M01 A3018 RMK A01 T00721008  RH  057%=      5-min Rain = 0
KWE1 160924Z 18007KT 07/M01 A3018 RMK A01 T00721008  RH  057%=      5-min Rain = 0
KWE1 160925Z 18007KT 07/M01 A3018 RMK A01 T00711008  RH  057%=      5-min Rain = 0
KWE1 160926Z 18007KT 07/M01 A3018 RMK A01 T00711008  RH  057%=      5-min Rain = 0
KWE1 160927Z 18008KT 07/M01 A3018 RMK A01 T00701008  RH  057%=      5-min Rain = 0
KWE1 160928Z 18007KT 07/M01 A3018 RMK A01 T00701008  RH  058%=      5-min Rain = 0
KWE1 160929Z 18008KT 07/M01 A3018 RMK A01 T00691008  RH  058%=      5-min Rain = 0
KWE1 160930Z 18008KT 07/M01 A3018 RMK A01 T00691008  RH  058%=      5-min Rain = 0
KWE1 160931Z 18008KT 07/M01 A3018 RMK A01 T00701008  RH  058%=      5-min Rain = 0
KWE1 160932Z 18008KT 07/M01 A3018 RMK A01 T00701008  RH  058%=      5-min Rain = 0
KWE1 160933Z 18008KT 07/M01 A3018 RMK A01 T00701008  RH  057%=      5-min Rain = 0
KWE1 160934Z 17007KT 07/M01 A3018 RMK A01 T00701008  RH  057%=      5-min Rain = 0
KWE1 160935Z 17007KT 07/M01 A3018 RMK A01 T00701008  RH  057%=      5-min Rain = 0
KWE1 160936Z 17008KT 07/M01 A3018 RMK A01 T00701008  RH  058%=      5-min Rain = 0
KWE1 160937Z 18008KT 07/M01 A3018 RMK A01 T00701008  RH  058%=      5-min Rain = 0
KWE1 160938Z 17009KT 07/M01 A3018 RMK A01 T00691008  RH  058%=      5-min Rain = 0
KWE1 160939Z 17008KT 07/M01 A3018 RMK A01 T00701008  RH  058%=      5-min Rain = 0
KWE1 160940Z 17008KT 07/M01 A3018 RMK A01 T00701008  RH  058%=      5-min Rain = 0
KWE1 160941Z 17009KT 07/M01 A3018 RMK A01 T00701008  RH  058%=      5-min Rain = 0
KWE1 160942Z 17008KT 07/M01 A3018 RMK A01 T00691008  RH  058%=      5-min Rain = 0
KWE1 160943Z 18008KT 07/M01 A3018 RMK A01 T00691008  RH  058%=      5-min Rain = 0
KWE1 160944Z 17009KT 07/M01 A3018 RMK A01 T00691008  RH  058%=      5-min Rain = 0
KWE1 160945Z 17008KT 07/M01 A3018 RMK A01 T00691008  RH  058%=      5-min Rain = 0
KWE1 160946Z 18008KT 07/M01 A3018 RMK A01 T00691008  RH  058%=      5-min Rain = 0
KWE1 160947Z 18008KT 07/M01 A3018 RMK A01 T00691008  RH  058%=      5-min Rain = 0
KWE1 160948Z 17008KT 07/M01 A3018 RMK A01 T00691008  RH  058%=      5-min Rain = 0
KWE1 160949Z 17009KT 07/M01 A3018 RMK A01 T00691008  RH  058%=      5-min Rain = 0
KWE1 160950Z 18008KT 07/M01 A3018 RMK A01 T00691009  RH  058%=      5-min Rain = 0
KWE1 160951Z 18008KT 07/M01 A3018 RMK A01 T00691008  RH  058%=      5-min Rain = 0
KWE1 160952Z 17009KT 07/M01 A3018 RMK A01 T00681009  RH  058%=      5-min Rain = 0
KWE1 160953Z 18008KT 07/M01 A3018 RMK A01 T00671009  RH  058%=      5-min Rain = 0
KWE1 160954Z 17008KT 07/M01 A3018 RMK A01 T00671009  RH  058%=      5-min Rain = 0
KWE1 160955Z 18009KT 07/M01 A3018 RMK A01 T00671009  RH  058%=      5-min Rain = 0
KWE1 160956Z 18009KT 07/M01 A3018 RMK A01 T00671009  RH  059%=      5-min Rain = 0
KWE1 160957Z 18008KT 07/M01 A3018 RMK A01 T00661009  RH  059%=      5-min Rain = 0
KWE1 160958Z 18008KT 07/M01 A3018 RMK A01 T00651009  RH  059%=      5-min Rain = 0
KWE1 160959Z 18008KT 06/M01 A3018 RMK A01 T00641009  RH  059%=      5-min Rain = 0
KWE1 161000Z 17008KT 06/M01 A3018 RMK A01 T00641009  RH  060%=      5-min Rain = 0
KWE1 161001Z 18009KT 06/M01 A3018 RMK A01 T00641009  RH  060%=      5-min Rain = 0
KWE1 161002Z 17009KT 06/M01 A3018 RMK A01 T00641009  RH  060%=      5-min Rain = 0
KWE1 161003Z 18009KT 06/M01 A3018 RMK A01 T00631009  RH  060%=      5-min Rain = 0
KWE1 161004Z 18009KT 06/M01 A3018 RMK A01 T00631009  RH  060%=      5-min Rain = 0
KWE1 161005Z 17009KT 06/M01 A3018 RMK A01 T00631009  RH  060%=      5-min Rain = 0
KWE1 161006Z 17009KT 06/M01 A3018 RMK A01 T00641009  RH  060%=      5-min Rain = 0
KWE1 161007Z 17008KT 06/M01 A3017 RMK A01 T00631009  RH  060%=      5-min Rain = 0
KWE1 161008Z 17009KT 06/M01 A3017 RMK A01 T00631009  RH  060%=      5-min Rain = 0
KWE1 161009Z 17010KT 06/M01 A3017 RMK A01 T00621009  RH  060%=      5-min Rain = 0
KWE1 161010Z 17009KT 06/M01 A3017 RMK A01 T00621009  RH  060%=      5-min Rain = 0
KWE1 161011Z 17010KT 06/M01 A3017 RMK A01 T00621009  RH  060%=      5-min Rain = 0
KWE1 161012Z 17010KT 06/M01 A3017 RMK A01 T00621009  RH  060%=      5-min Rain = 0
KWE1 161013Z 17009KT 06/M01 A3017 RMK A01 T00621009  RH  060%=      5-min Rain = 0
KWE1 161014Z 17009KT 06/M01 A3018 RMK A01 T00621009  RH  060%=      5-min Rain = 0
KWE1 161015Z 17009KT 06/M01 A3017 RMK A01 T00621009  RH  060%=      5-min Rain = 0
KWE1 161016Z 17010KT 06/M01 A3017 RMK A01 T00621009  RH  060%=      5-min Rain = 0
KWE1 161017Z 17008KT 06/M01 A3018 RMK A01 T00621009  RH  060%=      5-min Rain = 0
KWE1 161018Z 17009KT 06/M01 A3017 RMK A01 T00621009  RH  060%=      5-min Rain = 0
KWE1 161019Z 18008KT 06/M01 A3017 RMK A01 T00631009  RH  060%=      5-min Rain = 0
KWE1 161020Z 17008KT 06/M01 A3018 RMK A01 T00621009  RH  060%=      5-min Rain = 0
KWE1 161021Z 17009KT 06/M01 A3017 RMK A01 T00631009  RH  060%=      5-min Rain = 0
KWE1 161022Z 17009KT 06/M01 A3017 RMK A01 T00621009  RH  060%=      5-min Rain = 0
KWE1 161023Z 17007KT 06/M01 A3017 RMK A01 T00631008  RH  060%=      5-min Rain = 0
KWE1 161024Z 17009KT 06/M01 A3017 RMK A01 T00621008  RH  060%=      5-min Rain = 0
KWE1 161025Z 17009KT 06/M01 A3017 RMK A01 T00621009  RH  060%=      5-min Rain = 0
KWE1 161026Z 17008KT 06/M01 A3017 RMK A01 T00621009  RH  060%=      5-min Rain = 0
KWE1 161027Z 17009KT 06/M01 A3017 RMK A01 T00631009  RH  060%=      5-min Rain = 0
KWE1 161028Z 17010KT 06/M01 A3017 RMK A01 T00631009  RH  060%=      5-min Rain = 0
KWE1 161029Z 17009KT 06/M01 A3017 RMK A01 T00631008  RH  060%=      5-min Rain = 0
KWE1 161030Z 17009KT 06/M01 A3017 RMK A01 T00641008  RH  060%=      5-min Rain = 0
KWE1 161031Z 17009KT 06/M01 A3017 RMK A01 T00641008  RH  060%=      5-min Rain = 0
KWE1 161032Z 16009KT 06/M01 A3017 RMK A01 T00631008  RH  060%=      5-min Rain = 0
KWE1 161033Z 17007KT 06/M01 A3017 RMK A01 T00631008  RH  060%=      5-min Rain = 0
KWE1 161034Z 16008KT 06/M01 A3017 RMK A01 T00631008  RH  060%=      5-min Rain = 0
KWE1 161035Z 17009KT 06/M01 A3017 RMK A01 T00631008  RH  061%=      5-min Rain = 0
KWE1 161036Z 16008KT 06/M01 A3017 RMK A01 T00621008  RH  061%=      5-min Rain = 0
KWE1 161037Z 16008KT 06/M01 A3017 RMK A01 T00621008  RH  061%=      5-min Rain = 0
KWE1 161038Z 17008KT 06/M01 A3017 RMK A01 T00621008  RH  061%=      5-min Rain = 0
KWE1 161039Z 16008KT 06/M01 A3017 RMK A01 T00621008  RH  061%=      5-min Rain = 0
KWE1 161040Z 17008KT 06/M01 A3017 RMK A01 T00611008  RH  061%=      5-min Rain = 0
KWE1 161041Z 17008KT 06/M01 A3017 RMK A01 T00611008  RH  061%=      5-min Rain = 0
KWE1 161042Z 17008KT 06/M01 A3017 RMK A01 T00611008  RH  061%=      5-min Rain = 0
KWE1 161043Z 17008KT 06/M01 A3017 RMK A01 T00611008  RH  061%=      5-min Rain = 0
KWE1 161044Z 17007KT 06/M01 A3017 RMK A01 T00611008  RH  061%=      5-min Rain = 0
KWE1 161045Z 17008KT 06/M01 A3017 RMK A01 T00611008  RH  061%=      5-min Rain = 0
KWE1 161046Z 17006KT 06/M01 A3017 RMK A01 T00611008  RH  061%=      5-min Rain = 0
KWE1 161047Z 18007KT 06/M01 A3017 RMK A01 T00611008  RH  061%=      5-min Rain = 0
KWE1 161048Z 18007KT 06/M01 A3017 RMK A01 T00611008  RH  061%=      5-min Rain = 0
KWE1 161049Z 18007KT 06/M01 A3017 RMK A01 T00611008  RH  061%=      5-min Rain = 0
KWE1 161050Z 18007KT 06/M01 A3017 RMK A01 T00621008  RH  061%=      5-min Rain = 0
KWE1 161051Z 18007KT 06/M01 A3017 RMK A01 T00611008  RH  061%=      5-min Rain = 0
KWE1 161052Z 18006KT 06/M01 A3017 RMK A01 T00611008  RH  061%=      5-min Rain = 0
KWE1 161053Z 19006KT 06/M01 A3017 RMK A01 T00601008  RH  061%=      5-min Rain = 0
KWE1 161054Z 18007KT 06/M01 A3017 RMK A01 T00591008  RH  062%=      5-min Rain = 0
KWE1 161055Z 18007KT 06/M01 A3017 RMK A01 T00591008  RH  062%=      5-min Rain = 0
KWE1 161056Z 18007KT 06/M01 A3017 RMK A01 T00581008  RH  062%=      5-min Rain = 0
KWE1 161057Z 18006KT 06/M01 A3017 RMK A01 T00581008  RH  063%=      5-min Rain = 0
KWE1 161058Z 19007KT 06/M01 A3017 RMK A01 T00571008  RH  063%=      5-min Rain = 0
KWE1 161059Z 18007KT 06/M01 A3017 RMK A01 T00571008  RH  063%=      5-min Rain = 0
KWE1 161100Z 18007KT 06/M01 A3017 RMK A01 T00571008  RH  063%=      5-min Rain = 0
KWE1 161101Z 18006KT 06/M01 A3017 RMK A01 T00561008  RH  063%=      5-min Rain = 0
KWE1 161102Z 18006KT 06/M01 A3017 RMK A01 T00561008  RH  064%=      5-min Rain = 0
KWE1 161103Z 18006KT 06/M01 A3017 RMK A01 T00561008  RH  064%=      5-min Rain = 0
KWE1 161104Z 18007KT 06/M01 A3017 RMK A01 T00551008  RH  064%=      5-min Rain = 0
KWE1 161105Z 18006KT 06/M01 A3017 RMK A01 T00551008  RH  064%=      5-min Rain = 0
KWE1 161106Z 18006KT 06/M01 A3017 RMK A01 T00551008  RH  064%=      5-min Rain = 0
KWE1 161107Z 18007KT 05/M01 A3017 RMK A01 T00541008  RH  064%=      5-min Rain = 0
KWE1 161108Z 18007KT 05/M01 A3017 RMK A01 T00541008  RH  064%=      5-min Rain = 0
KWE1 161109Z 18007KT 05/M01 A3017 RMK A01 T00541007  RH  064%=      5-min Rain = 0
KWE1 161110Z 18007KT 05/M01 A3017 RMK A01 T00541007  RH  064%=      5-min Rain = 0
KWE1 161111Z 18007KT 05/M01 A3017 RMK A01 T00541007  RH  065%=      5-min Rain = 0
KWE1 161112Z 18008KT 06/M01 A3017 RMK A01 T00551007  RH  064%=      5-min Rain = 0
KWE1 161113Z 17008KT 06/M01 A3017 RMK A01 T00561007  RH  064%=      5-min Rain = 0
KWE1 161114Z 18007KT 06/M01 A3017 RMK A01 T00571007  RH  064%=      5-min Rain = 0
KWE1 161115Z 18007KT 06/M01 A3017 RMK A01 T00571007  RH  063%=      5-min Rain = 0
KWE1 161116Z 18007KT 06/M01 A3017 RMK A01 T00561007  RH  064%=      5-min Rain = 0
KWE1 161117Z 18007KT 06/M01 A3017 RMK A01 T00561007  RH  064%=      5-min Rain = 0
KWE1 161118Z 18007KT 06/M01 A3017 RMK A01 T00551007  RH  064%=      5-min Rain = 0
KWE1 161119Z 18007KT 06/M01 A3017 RMK A01 T00551008  RH  064%=      5-min Rain = 0
KWE1 161120Z 17007KT 05/M01 A3017 RMK A01 T00541007  RH  064%=      5-min Rain = 0
KWE1 161121Z 18007KT 05/M01 A3017 RMK A01 T00541007  RH  065%=      5-min Rain = 0
KWE1 161122Z 17007KT 05/M01 A3017 RMK A01 T00531007  RH  065%=      5-min Rain = 0
KWE1 161123Z 18007KT 05/M01 A3017 RMK A01 T00531007  RH  065%=      5-min Rain = 0
KWE1 161124Z 17006KT 05/M01 A3017 RMK A01 T00521007  RH  065%=      5-min Rain = 0
KWE1 161125Z 17006KT 05/M01 A3017 RMK A01 T00521007  RH  066%=      5-min Rain = 0
KWE1 161126Z 17006KT 05/M01 A3017 RMK A01 T00511007  RH  066%=      5-min Rain = 0
KWE1 161127Z 18006KT 05/M01 A3017 RMK A01 T00511007  RH  066%=      5-min Rain = 0
KWE1 161128Z 18006KT 05/M01 A3017 RMK A01 T00511007  RH  066%=      5-min Rain = 0
KWE1 161129Z 18006KT 05/M01 A3017 RMK A01 T00511007  RH  066%=      5-min Rain = 0
KWE1 161130Z 19006KT 05/M01 A3017 RMK A01 T00511007  RH  066%=      5-min Rain = 0
KWE1 161131Z 18006KT 05/M01 A3017 RMK A01 T00511007  RH  066%=      5-min Rain = 0
KWE1 161132Z 19005KT 05/M01 A3017 RMK A01 T00501007  RH  067%=      5-min Rain = 0
KWE1 161133Z 18005KT 05/M01 A3017 RMK A01 T00501007  RH  067%=      5-min Rain = 0
KWE1 161134Z 19005KT 05/M01 A3017 RMK A01 T00491007  RH  067%=      5-min Rain = 0
KWE1 161135Z 19006KT 05/M01 A3017 RMK A01 T00491007  RH  067%=      5-min Rain = 0
KWE1 161136Z 19006KT 05/M01 A3017 RMK A01 T00491007  RH  067%=      5-min Rain = 0
KWE1 161137Z 19006KT 05/M01 A3017 RMK A01 T00491007  RH  067%=      5-min Rain = 0
KWE1 161138Z 19006KT 05/M01 A3017 RMK A01 T00481007  RH  067%=      5-min Rain = 0
KWE1 161139Z 19006KT 05/M01 A3017 RMK A01 T00481007  RH  068%=      5-min Rain = 0
KWE1 161140Z 19006KT 05/M01 A3017 RMK A01 T00481007  RH  068%=      5-min Rain = 0
KWE1 161141Z 19006KT 05/M01 A3017 RMK A01 T00481007  RH  068%=      5-min Rain = 0
KWE1 161142Z 18006KT 05/M01 A3017 RMK A01 T00481007  RH  068%=      5-min Rain = 0
KWE1 161143Z 18006KT 05/M01 A3017 RMK A01 T00481007  RH  068%=      5-min Rain = 0
KWE1 161144Z 18006KT 05/M01 A3017 RMK A01 T00471007  RH  068%=      5-min Rain = 0
KWE1 161145Z 18007KT 05/M01 A3017 RMK A01 T00471007  RH  068%=      5-min Rain = 0
KWE1 161146Z 18007KT 05/M01 A3017 RMK A01 T00461007  RH  068%=      5-min Rain = 0
KWE1 161147Z 18006KT 05/M01 A3017 RMK A01 T00471007  RH  068%=      5-min Rain = 0
KWE1 161148Z 18006KT 05/M01 A3017 RMK A01 T00471007  RH  068%=      5-min Rain = 0
KWE1 161149Z 19006KT 05/M01 A3017 RMK A01 T00471007  RH  068%=      5-min Rain = 0
KWE1 161150Z 19006KT 05/M01 A3017 RMK A01 T00461008  RH  068%=      5-min Rain = 0
KWE1 161151Z 18006KT 05/M01 A3017 RMK A01 T00451008  RH  069%=      5-min Rain = 0
KWE1 161152Z 18006KT 05/M01 A3017 RMK A01 T00451008  RH  069%=      5-min Rain = 0
KWE1 161153Z 18006KT 04/M01 A3017 RMK A01 T00441008  RH  069%=      5-min Rain = 0
KWE1 161154Z 19006KT 04/M01 A3017 RMK A01 T00431008  RH  069%=      5-min Rain = 0
KWE1 161155Z 18006KT 04/M01 A3017 RMK A01 T00431008  RH  070%=      5-min Rain = 0
KWE1 161156Z 18006KT 04/M01 A3017 RMK A01 T00431007  RH  070%=      5-min Rain = 0
KWE1 161157Z 18006KT 04/M01 A3017 RMK A01 T00431007  RH  070%=      5-min Rain = 0
KWE1 161158Z 18006KT 04/M01 A3017 RMK A01 T00431007  RH  070%=      5-min Rain = 0
KWE1 161159Z 18007KT 04/M01 A3017 RMK A01 T00431007  RH  070%=      5-min Rain = 0
KWE1 161200Z 18006KT 04/M01 A3017 RMK A01 T00431007  RH  070%=      5-min Rain = 0
KWE1 161201Z 18007KT 04/M01 A3017 RMK A01 T00431007  RH  070%=      5-min Rain = 0
KWE1 161202Z 18007KT 04/M01 A3017 RMK A01 T00431007  RH  070%=      5-min Rain = 0
KWE1 161203Z 18007KT 04/M01 A3017 RMK A01 T00431007  RH  070%=      5-min Rain = 0
KWE1 161204Z 18007KT 04/M01 A3017 RMK A01 T00431007  RH  070%=      5-min Rain = 0
KWE1 161205Z 18007KT 04/M01 A3017 RMK A01 T00441007  RH  070%=      5-min Rain = 0
KWE1 161206Z 18007KT 04/M01 A3017 RMK A01 T00441007  RH  070%=      5-min Rain = 0
KWE1 161207Z 18006KT 04/M01 A3017 RMK A01 T00431007  RH  070%=      5-min Rain = 0
KWE1 161208Z 19006KT 04/M01 A3017 RMK A01 T00431007  RH  070%=      5-min Rain = 0
KWE1 161209Z 18005KT 04/M01 A3017 RMK A01 T00421008  RH  070%=      5-min Rain = 0
KWE1 161210Z 18005KT 04/M01 A3017 RMK A01 T00421008  RH  070%=      5-min Rain = 0
KWE1 161211Z 19005KT 04/M01 A3017 RMK A01 T00411008  RH  070%=      5-min Rain = 0
KWE1 161212Z 18005KT 04/M01 A3017 RMK A01 T00401008  RH  071%=      5-min Rain = 0
KWE1 161213Z 19005KT 04/M01 A3017 RMK A01 T00401008  RH  071%=      5-min Rain = 0
KWE1 161214Z 19005KT 04/M01 A3017 RMK A01 T00391008  RH  071%=      5-min Rain = 0
KWE1 161215Z 18005KT 04/M01 A3017 RMK A01 T00391008  RH  071%=      5-min Rain = 0
KWE1 161216Z 18005KT 04/M01 A3017 RMK A01 T00391008  RH  072%=      5-min Rain = 0
KWE1 161217Z 18005KT 04/M01 A3017 RMK A01 T00391008  RH  071%=      5-min Rain = 0
KWE1 161218Z 19005KT 04/M01 A3017 RMK A01 T00391008  RH  071%=      5-min Rain = 0
KWE1 161219Z 19006KT 04/M01 A3017 RMK A01 T00391008  RH  072%=      5-min Rain = 0
KWE1 161220Z 19005KT 04/M01 A3017 RMK A01 T00391007  RH  072%=      5-min Rain = 0
KWE1 161221Z 18006KT 04/M01 A3017 RMK A01 T00391008  RH  072%=      5-min Rain = 0
KWE1 161222Z 19006KT 04/M01 A3017 RMK A01 T00391007  RH  072%=      5-min Rain = 0
KWE1 161223Z 18005KT 04/M01 A3017 RMK A01 T00391007  RH  072%=      5-min Rain = 0
KWE1 161224Z 18005KT 04/M01 A3017 RMK A01 T00391007  RH  072%=      5-min Rain = 0
KWE1 161225Z 18006KT 04/M01 A3017 RMK A01 T00391007  RH  072%=      5-min Rain = 0
KWE1 161226Z 19006KT 04/M01 A3017 RMK A01 T00391007  RH  072%=      5-min Rain = 0
KWE1 161227Z 19005KT 04/M01 A3017 RMK A01 T00391007  RH  072%=      5-min Rain = 0
KWE1 161228Z 19005KT 04/M01 A3017 RMK A01 T00391007  RH  072%=      5-min Rain = 0
KWE1 161229Z 19005KT 04/M01 A3017 RMK A01 T00391007  RH  072%=      5-min Rain = 0
KWE1 161230Z 19006KT 04/M01 A3017 RMK A01 T00381007  RH  072%=      5-min Rain = 0
KWE1 161231Z 18006KT 04/M01 A3017 RMK A01 T00381007  RH  072%=      5-min Rain = 0
KWE1 161232Z 19006KT 04/M01 A3017 RMK A01 T00381007  RH  072%=      5-min Rain = 0
KWE1 161233Z 19006KT 04/M01 A3017 RMK A01 T00391007  RH  072%=      5-min Rain = 0
KWE1 161234Z 19005KT 04/M01 A3017 RMK A01 T00381007  RH  072%=      5-min Rain = 0
KWE1 161235Z 20005KT 04/M01 A3017 RMK A01 T00381007  RH  072%=      5-min Rain = 0
KWE1 161236Z 20005KT 04/M01 A3017 RMK A01 T00381007  RH  072%=      5-min Rain = 0
KWE1 161237Z 20005KT 04/M01 A3017 RMK A01 T00381007  RH  072%=      5-min Rain = 0
KWE1 161238Z 20005KT 04/M01 A3017 RMK A01 T00391006  RH  072%=      5-min Rain = 0
KWE1 161239Z 20005KT 04/M01 A3017 RMK A01 T00391006  RH  072%=      5-min Rain = 0
KWE1 161240Z 20005KT 04/M01 A3017 RMK A01 T00401006  RH  072%=      5-min Rain = 0
KWE1 161241Z 20006KT 04/M01 A3017 RMK A01 T00401006  RH  072%=      5-min Rain = 0
KWE1 161242Z 20005KT 04/M01 A3017 RMK A01 T00411006  RH  072%=      5-min Rain = 0
KWE1 161243Z 19005KT 04/M01 A3017 RMK A01 T00421005  RH  071%=      5-min Rain = 0
KWE1 161244Z 20005KT 04/M01 A3017 RMK A01 T00421006  RH  071%=      5-min Rain = 0
KWE1 161245Z 20005KT 04/M01 A3017 RMK A01 T00411006  RH  071%=      5-min Rain = 0
KWE1 161246Z 19006KT 04/M01 A3017 RMK A01 T00411006  RH  071%=      5-min Rain = 0
KWE1 161247Z 19006KT 04/M01 A3017 RMK A01 T00411006  RH  071%=      5-min Rain = 0
KWE1 161248Z 19005KT 04/M01 A3018 RMK A01 T00421006  RH  071%=      5-min Rain = 0
KWE1 161249Z 19005KT 04/M01 A3018 RMK A01 T00421006  RH  071%=      5-min Rain = 0
KWE1 161250Z 19005KT 04/M01 A3018 RMK A01 T00421006  RH  071%=      5-min Rain = 0
KWE1 161251Z 19005KT 04/M01 A3018 RMK A01 T00411006  RH  071%=      5-min Rain = 0
KWE1 161252Z 19006KT 04/M01 A3018 RMK A01 T00411006  RH  071%=      5-min Rain = 0
KWE1 161253Z 19006KT 04/M01 A3018 RMK A01 T00421006  RH  071%=      5-min Rain = 0
KWE1 161254Z 19005KT 04/M01 A3018 RMK A01 T00411006  RH  071%=      5-min Rain = 0
KWE1 161255Z 19005KT 04/M01 A3018 RMK A01 T00411006  RH  071%=      5-min Rain = 0
KWE1 161256Z 19004KT 04/M01 A3018 RMK A01 T00401007  RH  071%=      5-min Rain = 0
KWE1 161257Z 19005KT 04/M01 A3017 RMK A01 T00401007  RH  072%=      5-min Rain = 0
KWE1 161258Z 19005KT 04/M01 A3017 RMK A01 T00391007  RH  072%=      5-min Rain = 0
KWE1 161259Z 19005KT 04/M01 A3017 RMK A01 T00391007  RH  072%=      5-min Rain = 0
KWE1 161300Z 19005KT 04/M01 A3017 RMK A01 T00391006  RH  072%=      5-min Rain = 0
KWE1 161301Z 19005KT 04/M01 A3017 RMK A01 T00381006  RH  073%=      5-min Rain = 0
KWE1 161302Z 19005KT 04/M01 A3017 RMK A01 T00391006  RH  073%=      5-min Rain = 0
KWE1 161303Z 19006KT 04/M01 A3017 RMK A01 T00381006  RH  073%=      5-min Rain = 0
KWE1 161304Z 19005KT 04/M01 A3018 RMK A01 T00381006  RH  073%=      5-min Rain = 0
KWE1 161305Z 19005KT 04/M01 A3018 RMK A01 T00381006  RH  073%=      5-min Rain = 0
KWE1 161306Z 19005KT 04/M01 A3018 RMK A01 T00381006  RH  073%=      5-min Rain = 0
KWE1 161307Z 19005KT 04/M01 A3018 RMK A01 T00381006  RH  073%=      5-min Rain = 0
KWE1 161308Z 19006KT 04/M01 A3018 RMK A01 T00381006  RH  073%=      5-min Rain = 0
KWE1 161309Z 19006KT 04/M01 A3018 RMK A01 T00391006  RH  073%=      5-min Rain = 0
KWE1 161310Z 19006KT 04/M01 A3018 RMK A01 T00391006  RH  073%=      5-min Rain = 0
KWE1 161311Z 19006KT 04/M01 A3018 RMK A01 T00391005  RH  073%=      5-min Rain = 0
KWE1 161312Z 19006KT 04/M01 A3018 RMK A01 T00391006  RH  073%=      5-min Rain = 0
KWE1 161313Z 19006KT 04/M01 A3018 RMK A01 T00391006  RH  073%=      5-min Rain = 0
KWE1 161314Z 19006KT 04/M01 A3018 RMK A01 T00391005  RH  073%=      5-min Rain = 0
KWE1 161315Z 19006KT 04/M01 A3018 RMK A01 T00391005  RH  073%=      5-min Rain = 0
KWE1 161316Z 19006KT 04/M01 A3018 RMK A01 T00401005  RH  073%=      5-min Rain = 0
KWE1 161317Z 19006KT 04/M01 A3018 RMK A01 T00391005  RH  072%=      5-min Rain = 0
KWE1 161318Z 19006KT 04/M01 A3018 RMK A01 T00401005  RH  073%=      5-min Rain = 0
KWE1 161319Z 19006KT 04/M01 A3018 RMK A01 T00401005  RH  072%=      5-min Rain = 0
KWE1 161320Z 19006KT 04/M01 A3018 RMK A01 T00411005  RH  072%=      5-min Rain = 0
KWE1 161321Z 18007KT 04/M01 A3018 RMK A01 T00411005  RH  072%=      5-min Rain = 0
KWE1 161322Z 19006KT 04/M00 A3018 RMK A01 T00411004  RH  072%=      5-min Rain = 0
KWE1 161323Z 18006KT 04/M00 A3018 RMK A01 T00411004  RH  072%=      5-min Rain = 0
KWE1 161324Z 19005KT 04/M00 A3018 RMK A01 T00421004  RH  072%=      5-min Rain = 0
KWE1 161325Z 19006KT 04/M00 A3018 RMK A01 T00411004  RH  072%=      5-min Rain = 0
KWE1 161326Z 19005KT 04/M00 A3018 RMK A01 T00411004  RH  072%=      5-min Rain = 0
KWE1 161327Z 19005KT 04/M00 A3018 RMK A01 T00421004  RH  072%=      5-min Rain = 0
KWE1 161328Z 18006KT 04/M00 A3018 RMK A01 T00411004  RH  072%=      5-min Rain = 0
KWE1 161329Z 18005KT 04/M00 A3018 RMK A01 T00421004  RH  072%=      5-min Rain = 0
KWE1 161330Z 18006KT 04/M00 A3018 RMK A01 T00421004  RH  072%=      5-min Rain = 0
KWE1 161331Z 18007KT 04/M00 A3018 RMK A01 T00431003  RH  072%=      5-min Rain = 0
KWE1 161332Z 18006KT 04/M00 A3018 RMK A01 T00441003  RH  072%=      5-min Rain = 0
KWE1 161333Z 19006KT 04/M00 A3018 RMK A01 T00441003  RH  071%=      5-min Rain = 0
KWE1 161334Z 19006KT 05/M00 A3018 RMK A01 T00451003  RH  071%=      5-min Rain = 0
KWE1 161335Z 19005KT 05/M00 A3018 RMK A01 T00461003  RH  071%=      5-min Rain = 0
KWE1 161336Z 18005KT 05/M00 A3018 RMK A01 T00461002  RH  071%=      5-min Rain = 0
KWE1 161337Z 18004KT 05/M00 A3018 RMK A01 T00471002  RH  071%=      5-min Rain = 0
KWE1 161338Z 19005KT 05/M00 A3018 RMK A01 T00471002  RH  071%=      5-min Rain = 0
KWE1 161339Z 18005KT 05/M00 A3018 RMK A01 T00481001  RH  070%=      5-min Rain = 0
KWE1 161340Z 18005KT 05/M00 A3018 RMK A01 T00491001  RH  070%=      5-min Rain = 0
KWE1 161341Z 18005KT 05/00 A3018 RMK A01 T005000-0  RH  070%=      5-min Rain = 0
KWE1 161342Z 18005KT 05/00 A3018 RMK A01 T005100-0  RH  069%=      5-min Rain = 0
KWE1 161343Z 18005KT 05/00 A3018 RMK A01 T00520000  RH  069%=      5-min Rain = 0
KWE1 161344Z 18005KT 05/00 A3018 RMK A01 T00530000  RH  069%=      5-min Rain = 0
KWE1 161345Z 18006KT 05/00 A3018 RMK A01 T00540001  RH  068%=      5-min Rain = 0
KWE1 161346Z 18007KT 06/00 A3018 RMK A01 T00550001  RH  068%=      5-min Rain = 0
KWE1 161347Z 18008KT 06/00 A3018 RMK A01 T00550001  RH  068%=      5-min Rain = 0
KWE1 161348Z 18007KT 06/00 A3018 RMK A01 T00560001  RH  068%=      5-min Rain = 0
KWE1 161349Z 18008KT 06/00 A3018 RMK A01 T00570001  RH  067%=      5-min Rain = 0
KWE1 161350Z 18008KT 06/00 A3018 RMK A01 T00580002  RH  067%=      5-min Rain = 0
KWE1 161351Z 18008KT 06/00 A3018 RMK A01 T00580002  RH  067%=      5-min Rain = 0
KWE1 161352Z 18007KT 06/00 A3018 RMK A01 T00590002  RH  067%=      5-min Rain = 0
KWE1 161353Z 18007KT 06/00 A3018 RMK A01 T00600003  RH  067%=      5-min Rain = 0
KWE1 161354Z 18006KT 06/00 A3018 RMK A01 T00600002  RH  067%=      5-min Rain = 0
KWE1 161355Z 18006KT 06/00 A3018 RMK A01 T00600003  RH  067%=      5-min Rain = 0
KWE1 161356Z 18006KT 06/00 A3018 RMK A01 T00610003  RH  067%=      5-min Rain = 0
KWE1 161357Z 18007KT 06/00 A3018 RMK A01 T00610003  RH  066%=      5-min Rain = 0
KWE1 161358Z 18007KT 06/00 A3018 RMK A01 T00610003  RH  066%=      5-min Rain = 0
KWE1 161359Z 18008KT 06/00 A3018 RMK A01 T00620004  RH  066%=      5-min Rain = 0
KWE1 161400Z 18006KT 06/00 A3018 RMK A01 T00630004  RH  066%=      5-min Rain = 0
KWE1 161401Z 18008KT 06/00 A3018 RMK A01 T00630004  RH  066%=      5-min Rain = 0
KWE1 161402Z 18006KT 06/00 A3018 RMK A01 T00640004  RH  065%=      5-min Rain = 0
KWE1 161403Z 18006KT 07/01 A3018 RMK A01 T00650005  RH  065%=      5-min Rain = 0
KWE1 161404Z 18006KT 07/01 A3018 RMK A01 T00660005  RH  065%=      5-min Rain = 0
KWE1 161405Z 18005KT 07/01 A3018 RMK A01 T00660005  RH  065%=      5-min Rain = 0
KWE1 161406Z 18005KT 07/01 A3018 RMK A01 T00660005  RH  065%=      5-min Rain = 0
KWE1 161407Z 18004KT 07/01 A3018 RMK A01 T00670006  RH  065%=      5-min Rain = 0
KWE1 161408Z 18005KT 07/01 A3018 RMK A01 T00690007  RH  065%=      5-min Rain = 0
KWE1 161409Z 18005KT 07/01 A3018 RMK A01 T00700007  RH  064%=      5-min Rain = 0
KWE1 161410Z 18005KT 07/01 A3018 RMK A01 T00700007  RH  064%=      5-min Rain = 0
KWE1 161411Z 18007KT 07/01 A3018 RMK A01 T00710006  RH  063%=      5-min Rain = 0
KWE1 161412Z 18007KT 07/01 A3018 RMK A01 T00710005  RH  063%=      5-min Rain = 0
KWE1 161413Z 18006KT 07/01 A3018 RMK A01 T00700005  RH  063%=      5-min Rain = 0
KWE1 161414Z 18006KT 07/01 A3018 RMK A01 T00700006  RH  064%=      5-min Rain = 0
KWE1 161415Z 18007KT 07/01 A3018 RMK A01 T00710007  RH  064%=      5-min Rain = 0
KWE1 161416Z 18008KT 07/01 A3018 RMK A01 T00710006  RH  063%=      5-min Rain = 0
KWE1 161417Z 18006KT 07/01 A3018 RMK A01 T00710006  RH  063%=      5-min Rain = 0
KWE1 161418Z 18006KT 07/01 A3018 RMK A01 T00710006  RH  063%=      5-min Rain = 0
KWE1 161419Z 18007KT 07/01 A3018 RMK A01 T00710007  RH  064%=      5-min Rain = 0
KWE1 161420Z 18006KT 07/01 A3018 RMK A01 T00710007  RH  064%=      5-min Rain = 0
KWE1 161421Z 17005KT 07/01 A3018 RMK A01 T00710007  RH  064%=      5-min Rain = 0
KWE1 161422Z 17005KT 07/01 A3018 RMK A01 T00710008  RH  064%=      5-min Rain = 0
KWE1 161423Z 17007KT 07/01 A3018 RMK A01 T00720008  RH  064%=      5-min Rain = 0
KWE1 161424Z 17007KT 07/01 A3018 RMK A01 T00720008  RH  064%=      5-min Rain = 0
KWE1 161425Z 17007KT 07/01 A3018 RMK A01 T00730008  RH  064%=      5-min Rain = 0
KWE1 161426Z 17005KT 07/01 A3018 RMK A01 T00730008  RH  064%=      5-min Rain = 0
KWE1 161427Z 17006KT 07/01 A3018 RMK A01 T00730008  RH  064%=      5-min Rain = 0
KWE1 161428Z 18007KT 07/01 A3018 RMK A01 T00730008  RH  063%=      5-min Rain = 0
KWE1 161429Z 18008KT 07/01 A3018 RMK A01 T00720007  RH  063%=      5-min Rain = 0
KWE1 161430Z 18006KT 07/01 A3018 RMK A01 T00720007  RH  063%=      5-min Rain = 0
KWE1 161431Z 18005KT 07/01 A3018 RMK A01 T00710007  RH  064%=      5-min Rain = 0
KWE1 161432Z 17005KT 07/01 A3018 RMK A01 T00710009  RH  064%=      5-min Rain = 0
KWE1 161433Z 18005KT 07/01 A3018 RMK A01 T00720010  RH  065%=      5-min Rain = 0
KWE1 161434Z 18007KT 07/01 A3018 RMK A01 T00720009  RH  064%=      5-min Rain = 0
KWE1 161435Z 18007KT 07/01 A3018 RMK A01 T00730009  RH  064%=      5-min Rain = 0
KWE1 161436Z 18007KT 07/01 A3018 RMK A01 T00730008  RH  064%=      5-min Rain = 0
KWE1 161437Z 18007KT 07/01 A3018 RMK A01 T00720008  RH  064%=      5-min Rain = 0
KWE1 161438Z 18007KT 07/01 A3018 RMK A01 T00730008  RH  064%=      5-min Rain = 0
KWE1 161439Z 17006KT 07/01 A3018 RMK A01 T00740009  RH  063%=      5-min Rain = 0
KWE1 161440Z 18006KT 07/01 A3018 RMK A01 T00740010  RH  063%=      5-min Rain = 0
KWE1 161441Z 17006KT 08/01 A3017 RMK A01 T00760011  RH  063%=      5-min Rain = 0
KWE1 161442Z 17006KT 08/01 A3017 RMK A01 T00760010  RH  063%=      5-min Rain = 0
KWE1 161443Z 17007KT 08/01 A3017 RMK A01 T00770011  RH  063%=      5-min Rain = 0
KWE1 161444Z 17007KT 08/01 A3017 RMK A01 T00770010  RH  062%=      5-min Rain = 0
KWE1 161445Z 17006KT 08/01 A3017 RMK A01 T00770010  RH  063%=      5-min Rain = 0
KWE1 161446Z 18007KT 08/01 A3017 RMK A01 T00780012  RH  063%=      5-min Rain = 0
KWE1 161447Z 18007KT 08/01 A3017 RMK A01 T00790012  RH  062%=      5-min Rain = 0
KWE1 161448Z 18006KT 08/01 A3017 RMK A01 T00790011  RH  062%=      5-min Rain = 0
KWE1 161449Z 18006KT 08/01 A3017 RMK A01 T00790011  RH  062%=      5-min Rain = 0
KWE1 161450Z 18005KT 08/01 A3017 RMK A01 T00800012  RH  062%=      5-min Rain = 0
KWE1 161451Z 18005KT 08/01 A3018 RMK A01 T00810013  RH  062%=      5-min Rain = 0
KWE1 161452Z 18005KT 08/01 A3018 RMK A01 T00820013  RH  062%=      5-min Rain = 0
KWE1 161453Z 18004KT 08/01 A3018 RMK A01 T00830013  RH  062%=      5-min Rain = 0
KWE1 161454Z 17005KT 08/01 A3018 RMK A01 T00830013  RH  061%=      5-min Rain = 0
KWE1 161455Z 18005KT 08/01 A3018 RMK A01 T00840013  RH  061%=      5-min Rain = 0
KWE1 161456Z 18004KT 09/01 A3018 RMK A01 T00850014  RH  061%=      5-min Rain = 0
KWE1 161457Z 18006KT 09/02 A3018 RMK A01 T00860015  RH  061%=      5-min Rain = 0
KWE1 161458Z 19005KT 09/01 A3018 RMK A01 T00870013  RH  060%=      5-min Rain = 0
KWE1 161459Z 19006KT 09/01 A3018 RMK A01 T00880012  RH  059%=      5-min Rain = 0
KWE1 161500Z 19006KT 09/01 A3018 RMK A01 T00870012  RH  059%=      5-min Rain = 0
KWE1 161501Z 19007KT 09/01 A3017 RMK A01 T00870012  RH  059%=      5-min Rain = 0
KWE1 161502Z 18007KT 09/01 A3017 RMK A01 T00870011  RH  059%=      5-min Rain = 0
KWE1 161503Z 18008KT 09/01 A3017 RMK A01 T00880011  RH  059%=      5-min Rain = 0
KWE1 161504Z 18007KT 09/01 A3017 RMK A01 T00880011  RH  059%=      5-min Rain = 0
KWE1 161505Z 18006KT 09/01 A3017 RMK A01 T00880012  RH  059%=      5-min Rain = 0
KWE1 161506Z 18005KT 09/01 A3017 RMK A01 T00900014  RH  059%=      5-min Rain = 0
KWE1 161507Z 18007KT 09/02 A3017 RMK A01 T00920015  RH  059%=      5-min Rain = 0
KWE1 161508Z 17007KT 09/01 A3017 RMK A01 T00920013  RH  058%=      5-min Rain = 0
KWE1 161509Z 19008KT 09/01 A3017 RMK A01 T00910012  RH  058%=      5-min Rain = 0
KWE1 161510Z 19008KT 09/01 A3017 RMK A01 T00890011  RH  058%=      5-min Rain = 0
KWE1 161511Z 19008KT 09/01 A3017 RMK A01 T00890012  RH  058%=      5-min Rain = 0
KWE1 161512Z 18008KT 09/01 A3017 RMK A01 T00890013  RH  059%=      5-min Rain = 0
KWE1 161513Z 19007KT 09/01 A3017 RMK A01 T00890012  RH  058%=      5-min Rain = 0
KWE1 161514Z 19008KT 09/01 A3017 RMK A01 T00900013  RH  059%=      5-min Rain = 0
KWE1 161515Z 19007KT 09/01 A3017 RMK A01 T00910014  RH  059%=      5-min Rain = 0
KWE1 161516Z 19008KT 09/01 A3017 RMK A01 T00910014  RH  058%=      5-min Rain = 0
KWE1 161517Z 19006KT 09/02 A3017 RMK A01 T00920015  RH  058%=      5-min Rain = 0
KWE1 161518Z 18006KT 09/02 A3017 RMK A01 T00920015  RH  059%=      5-min Rain = 0
KWE1 161519Z 19008KT 09/02 A3017 RMK A01 T00940015  RH  058%=      5-min Rain = 0
KWE1 161520Z 18007KT 09/01 A3017 RMK A01 T00940013  RH  057%=      5-min Rain = 0
KWE1 161521Z 18007KT 09/01 A3017 RMK A01 T00940014  RH  057%=      5-min Rain = 0
KWE1 161522Z 18007KT 09/01 A3017 RMK A01 T00940014  RH  057%=      5-min Rain = 0
KWE1 161523Z 19008KT 10/02 A3017 RMK A01 T00950015  RH  057%=      5-min Rain = 0
KWE1 161524Z 19007KT 10/01 A3017 RMK A01 T00950014  RH  057%=      5-min Rain = 0
KWE1 161525Z 18007KT 10/01 A3017 RMK A01 T00950014  RH  057%=      5-min Rain = 0
KWE1 161526Z 18008KT 10/02 A3017 RMK A01 T00960015  RH  057%=      5-min Rain = 0
KWE1 161527Z 19006KT 10/01 A3017 RMK A01 T00960013  RH  056%=      5-min Rain = 0
KWE1 161528Z 20006KT 10/01 A3017 RMK A01 T00950014  RH  057%=      5-min Rain = 0
KWE1 161529Z 20007KT 10/01 A3017 RMK A01 T00960014  RH  057%=      5-min Rain = 0
KWE1 161530Z 20007KT 10/01 A3017 RMK A01 T00960014  RH  056%=      5-min Rain = 0
KWE1 161531Z 20006KT 10/01 A3017 RMK A01 T00960013  RH  056%=      5-min Rain = 0
KWE1 161532Z 18006KT 10/02 A3017 RMK A01 T00970015  RH  057%=      5-min Rain = 0
KWE1 161533Z 18007KT 10/02 A3017 RMK A01 T00970015  RH  057%=      5-min Rain = 0
KWE1 161534Z 18007KT 10/02 A3017 RMK A01 T00980015  RH  056%=      5-min Rain = 0
KWE1 161535Z 18008KT 10/02 A3017 RMK A01 T00970015  RH  056%=      5-min Rain = 0
KWE1 161536Z 18007KT 10/01 A3017 RMK A01 T00970014  RH  056%=      5-min Rain = 0
KWE1 161537Z 19008KT 10/01 A3017 RMK A01 T00970014  RH  056%=      5-min Rain = 0
KWE1 161538Z 19008KT 10/01 A3017 RMK A01 T00970014  RH  056%=      5-min Rain = 0
KWE1 161539Z 19006KT 10/02 A3017 RMK A01 T00970015  RH  056%=      5-min Rain = 0
KWE1 161540Z 19008KT 10/02 A3017 RMK A01 T00990016  RH  056%=      5-min Rain = 0
KWE1 161541Z 19008KT 10/01 A3017 RMK A01 T01000014  RH  055%=      5-min Rain = 0
KWE1 161542Z 19008KT 10/02 A3017 RMK A01 T01000015  RH  055%=      5-min Rain = 0
KWE1 161543Z 19008KT 10/01 A3017 RMK A01 T01000014  RH  055%=      5-min Rain = 0
KWE1 161544Z 18007KT 10/02 A3017 RMK A01 T01010015  RH  055%=      5-min Rain = 0
KWE1 161545Z 20007KT 10/02 A3017 RMK A01 T01020015  RH  055%=      5-min Rain = 0
KWE1 161546Z 19006KT 10/02 A3017 RMK A01 T01020015  RH  055%=      5-min Rain = 0
KWE1 161547Z 19007KT 10/02 A3017 RMK A01 T01040017  RH  055%=      5-min Rain = 0
KWE1 161548Z 19005KT 11/02 A3017 RMK A01 T01050018  RH  055%=      5-min Rain = 0
KWE1 161549Z 19004KT 11/02 A3017 RMK A01 T01080021  RH  055%=      5-min Rain = 0
KWE1 161550Z 19006KT 11/02 A3017 RMK A01 T01090020  RH  054%=      5-min Rain = 0
KWE1 161551Z 18005KT 11/02 A3017 RMK A01 T01090019  RH  054%=      5-min Rain = 0
KWE1 161552Z 18005KT 11/02 A3017 RMK A01 T01080019  RH  054%=      5-min Rain = 0
KWE1 161553Z 20005KT 11/02 A3017 RMK A01 T01080019  RH  054%=      5-min Rain = 0
KWE1 161554Z 20005KT 11/02 A3017 RMK A01 T01090020  RH  054%=      5-min Rain = 0
KWE1 161555Z 19005KT 11/02 A3017 RMK A01 T01110022  RH  054%=      5-min Rain = 0
KWE1 161556Z 20006KT 11/02 A3017 RMK A01 T01120021  RH  054%=      5-min Rain = 0
KWE1 161557Z 19006KT 11/02 A3017 RMK A01 T01130020  RH  053%=      5-min Rain = 0
KWE1 161558Z 18007KT 11/02 A3017 RMK A01 T01130020  RH  053%=      5-min Rain = 0
KWE1 161559Z 18007KT 11/02 A3017 RMK A01 T01130020  RH  053%=      5-min Rain = 0
KWE1 161600Z 18007KT 11/02 A3017 RMK A01 T01130020  RH  053%=      5-min Rain = 0
KWE1 161601Z 18007KT 11/02 A3017 RMK A01 T01140021  RH  053%=      5-min Rain = 0
KWE1 161602Z 19007KT 11/02 A3017 RMK A01 T01140019  RH  052%=      5-min Rain = 0
KWE1 161603Z 19008KT 11/02 A3017 RMK A01 T01140018  RH  052%=      5-min Rain = 0
KWE1 161604Z 19008KT 12/02 A3017 RMK A01 T01150017  RH  051%=      5-min Rain = 0
KWE1 161605Z 19009KT 12/02 A3017 RMK A01 T01150017  RH  051%=      5-min Rain = 0
KWE1 161606Z 19007KT 12/02 A3017 RMK A01 T01150016  RH  051%=      5-min Rain = 0
KWE1 161607Z 20006KT 12/02 A3017 RMK A01 T01150017  RH  051%=      5-min Rain = 0
KWE1 161608Z 18008KT 12/02 A3017 RMK A01 T01150018  RH  051%=      5-min Rain = 0
KWE1 161609Z 18007KT 12/02 A3017 RMK A01 T01160017  RH  051%=      5-min Rain = 0
KWE1 161610Z 18008KT 12/02 A3017 RMK A01 T01170018  RH  051%=      5-min Rain = 0
KWE1 161611Z 18006KT 12/02 A3017 RMK A01 T01170017  RH  050%=      5-min Rain = 0
KWE1 161612Z 20007KT 12/02 A3017 RMK A01 T01170017  RH  050%=      5-min Rain = 0
KWE1 161613Z 20006KT 12/02 A3017 RMK A01 T01180018  RH  050%=      5-min Rain = 0
KWE1 161614Z 21007KT 12/02 A3016 RMK A01 T01200019  RH  050%=      5-min Rain = 0
KWE1 161615Z 20007KT 12/02 A3016 RMK A01 T01230020  RH  049%=      5-min Rain = 0
KWE1 161616Z 21007KT 12/02 A3016 RMK A01 T01240019  RH  049%=      5-min Rain = 0
KWE1 161617Z 19007KT 12/02 A3016 RMK A01 T01210016  RH  049%=      5-min Rain = 0
KWE1 161618Z 19006KT 12/02 A3016 RMK A01 T01200018  RH  049%=      5-min Rain = 0
KWE1 161619Z 20006KT 12/02 A3016 RMK A01 T01210019  RH  050%=      5-min Rain = 0
KWE1 161620Z 20006KT 12/02 A3016 RMK A01 T01240020  RH  049%=      5-min Rain = 0
KWE1 161621Z 18005KT 13/02 A3016 RMK A01 T01260021  RH  049%=      5-min Rain = 0
KWE1 161622Z 18007KT 13/02 A3016 RMK A01 T01280019  RH  048%=      5-min Rain = 0
KWE1 161623Z 18006KT 13/02 A3016 RMK A01 T01280020  RH  048%=      5-min Rain = 0
KWE1 161624Z 18007KT 13/02 A3016 RMK A01 T01300020  RH  047%=      5-min Rain = 0
KWE1 161625Z 17006KT 13/02 A3016 RMK A01 T01310019  RH  047%=      5-min Rain = 0
KWE1 161626Z 19006KT 13/02 A3016 RMK A01 T01310020  RH  047%=      5-min Rain = 0
KWE1 161627Z 18010KT 13/02 A3016 RMK A01 T01310019  RH  046%=      5-min Rain = 0
KWE1 161628Z 19008KT 13/02 A3016 RMK A01 T01290015  RH  046%=      5-min Rain = 0
KWE1 161629Z 19009KT 13/02 A3016 RMK A01 T01270016  RH  047%=      5-min Rain = 0
KWE1 161630Z 19009KT 13/02 A3016 RMK A01 T01270015  RH  046%=      5-min Rain = 0
KWE1 161631Z 19007KT 13/02 A3016 RMK A01 T01270017  RH  047%=      5-min Rain = 0
KWE1 161632Z 20006KT 13/02 A3016 RMK A01 T01270018  RH  047%=      5-min Rain = 0
KWE1 161633Z 21007KT 13/02 A3016 RMK A01 T01260017  RH  047%=      5-min Rain = 0
KWE1 161634Z 17008KT 13/02 A3016 RMK A01 T01280021  RH  048%=      5-min Rain = 0
KWE1 161635Z 17007KT 13/02 A3015 RMK A01 T01290021  RH  048%=      5-min Rain = 0
KWE1 161636Z 19008KT 13/02 A3015 RMK A01 T01290021  RH  048%=      5-min Rain = 0
KWE1 161637Z 20006KT 13/02 A3015 RMK A01 T01290020  RH  047%=      5-min Rain = 0
KWE1 161638Z 18007KT 13/02 A3015 RMK A01 T01280020  RH  048%=      5-min Rain = 0
KWE1 161639Z 17007KT 13/02 A3015 RMK A01 T01280020  RH  048%=      5-min Rain = 0
KWE1 161640Z 16007KT 13/02 A3015 RMK A01 T01280019  RH  047%=      5-min Rain = 0
KWE1 161641Z 16006KT 13/02 A3015 RMK A01 T01270020  RH  048%=      5-min Rain = 0
KWE1 161642Z 18006KT 13/02 A3015 RMK A01 T01280022  RH  048%=      5-min Rain = 0
KWE1 161643Z 17007KT 13/02 A3015 RMK A01 T01300020  RH  047%=      5-min Rain = 0
KWE1 161644Z 17008KT 13/02 A3015 RMK A01 T01280020  RH  048%=      5-min Rain = 0
KWE1 161645Z 18006KT 13/02 A3015 RMK A01 T01290019  RH  047%=      5-min Rain = 0
KWE1 161646Z 17007KT 13/02 A3015 RMK A01 T01290019  RH  047%=      5-min Rain = 0
KWE1 161647Z 18007KT 13/02 A3015 RMK A01 T01290020  RH  047%=      5-min Rain = 0
KWE1 161648Z 19005KT 13/02 A3015 RMK A01 T01310022  RH  048%=      5-min Rain = 0
KWE1 161649Z 19008KT 13/02 A3015 RMK A01 T01330023  RH  047%=      5-min Rain = 0
KWE1 161650Z 19007KT 13/02 A3015 RMK A01 T01340020  RH  046%=      5-min Rain = 0
KWE1 161651Z 19006KT 13/02 A3015 RMK A01 T01330020  RH  046%=      5-min Rain = 0
KWE1 161652Z 17008KT 13/02 A3015 RMK A01 T01330021  RH  047%=      5-min Rain = 0
KWE1 161653Z 18007KT 13/02 A3015 RMK A01 T01340022  RH  047%=      5-min Rain = 0
KWE1 161654Z 18006KT 13/02 A3015 RMK A01 T01330021  RH  046%=      5-min Rain = 0
KWE1 161655Z 18006KT 13/02 A3015 RMK A01 T01320019  RH  046%=      5-min Rain = 0
KWE1 161656Z 17006KT 13/02 A3015 RMK A01 T01320020  RH  047%=      5-min Rain = 0
KWE1 161657Z 18007KT 13/02 A3015 RMK A01 T01320020  RH  047%=      5-min Rain = 0
KWE1 161658Z 17008KT 13/02 A3015 RMK A01 T01320019  RH  046%=      5-min Rain = 0
KWE1 161659Z 18008KT 13/02 A3015 RMK A01 T01330020  RH  046%=      5-min Rain = 0
KWE1 161700Z 20009KT 13/02 A3015 RMK A01 T01340020  RH  046%=      5-min Rain = 0
KWE1 161701Z 20010KT 14/02 A3015 RMK A01 T01350020  RH  046%=      5-min Rain = 0
KWE1 161702Z 20010KT 14/02 A3015 RMK A01 T01350019  RH  045%=      5-min Rain = 0
KWE1 161703Z 20010KT 14/02 A3015 RMK A01 T01360017  RH  044%=      5-min Rain = 0
KWE1 161704Z 21009KT 14/02 A3014 RMK A01 T01360016  RH  044%=      5-min Rain = 0
KWE1 161705Z 19009KT 13/02 A3014 RMK A01 T01340016  RH  045%=      5-min Rain = 0
KWE1 161706Z 19011KT 14/02 A3014 RMK A01 T01360018  RH  045%=      5-min Rain = 0
KWE1 161707Z 19010KT 14/02 A3015 RMK A01 T01370018  RH  045%=      5-min Rain = 0
KWE1 161708Z 20009KT 14/02 A3014 RMK A01 T01380018  RH  044%=      5-min Rain = 0
KWE1 161709Z 20009KT 14/02 A3014 RMK A01 T01380020  RH  045%=      5-min Rain = 0
KWE1 161710Z 19009KT 14/02 A3014 RMK A01 T01410022  RH  045%=      5-min Rain = 0
KWE1 161711Z 19008KT 14/02 A3014 RMK A01 T01420021  RH  044%=      5-min Rain = 0
KWE1 161712Z 18008KT 14/02 A3014 RMK A01 T01440022  RH  044%=      5-min Rain = 0
KWE1 161713Z 18009KT 15/02 A3014 RMK A01 T01450020  RH  043%=      5-min Rain = 0
KWE1 161714Z 20009KT 15/02 A3014 RMK A01 T01450021  RH  043%=      5-min Rain = 0
KWE1 161715Z 21010KT 15/02 A3014 RMK A01 T01470020  RH  042%=      5-min Rain = 0
KWE1 161716Z 20011KT 15/02 A3014 RMK A01 T01460018  RH  042%=      5-min Rain = 0
KWE1 161717Z 21011KT 15/02 A3014 RMK A01 T01460018  RH  042%=      5-min Rain = 0
KWE1 161718Z 19008KT 15/02 A3014 RMK A01 T01450018  RH  042%=      5-min Rain = 0
KWE1 161719Z 19008KT 15/02 A3014 RMK A01 T01460021  RH  043%=      5-min Rain = 0
KWE1 161720Z 19010KT 15/02 A3014 RMK A01 T01500022  RH  042%=      5-min Rain = 0
KWE1 161721Z 19010KT 15/02 A3014 RMK A01 T01500020  RH  041%=      5-min Rain = 0
KWE1 161722Z 20008KT 15/02 A3014 RMK A01 T01500020  RH  041%=      5-min Rain = 0
KWE1 161723Z 20008KT 15/02 A3013 RMK A01 T01500020  RH  041%=      5-min Rain = 0
KWE1 161724Z 19008KT 15/02 A3013 RMK A01 T01500021  RH  042%=      5-min Rain = 0
KWE1 161725Z 20008KT 15/02 A3013 RMK A01 T01520023  RH  042%=      5-min Rain = 0
KWE1 161726Z 18008KT 15/02 A3013 RMK A01 T01530022  RH  041%=      5-min Rain = 0
KWE1 161727Z 18006KT 15/02 A3013 RMK A01 T01520021  RH  041%=      5-min Rain = 0
KWE1 161728Z 18010KT 15/02 A3013 RMK A01 T01520023  RH  042%=      5-min Rain = 0
KWE1 161729Z 19008KT 15/02 A3013 RMK A01 T01530023  RH  042%=      5-min Rain = 0
KWE1 161730Z 21008KT 15/02 A3013 RMK A01 T01530023  RH  041%=      5-min Rain = 0
KWE1 161731Z 22008KT 15/02 A3013 RMK A01 T01530024  RH  042%=      5-min Rain = 0
KWE1 161732Z 20006KT 16/03 A3013 RMK A01 T01550025  RH  041%=      5-min Rain = 0
KWE1 161733Z 20007KT 16/03 A3013 RMK A01 T01570026  RH  041%=      5-min Rain = 0
KWE1 161734Z 20008KT 16/03 A3013 RMK A01 T01580027  RH  041%=      5-min Rain = 0
KWE1 161735Z 19010KT 16/03 A3013 RMK A01 T01590025  RH  040%=      5-min Rain = 0
KWE1 161736Z 20009KT 16/02 A3013 RMK A01 T01570023  RH  040%=      5-min Rain = 0
KWE1 161737Z 21009KT 15/02 A3013 RMK A01 T01540021  RH  041%=      5-min Rain = 0
KWE1 161738Z 21008KT 15/02 A3013 RMK A01 T01530024  RH  042%=      5-min Rain = 0
KWE1 161739Z 21011KT 15/02 A3013 RMK A01 T01540023  RH  041%=      5-min Rain = 0
KWE1 161740Z 20009KT 15/02 A3013 RMK A01 T01530022  RH  041%=      5-min Rain = 0
KWE1 161741Z 20009KT 15/02 A3013 RMK A01 T01520023  RH  042%=      5-min Rain = 0
KWE1 161742Z 20007KT 15/02 A3012 RMK A01 T01520024  RH  042%=      5-min Rain = 0
KWE1 161743Z 19006KT 15/02 A3012 RMK A01 T01520024  RH  042%=      5-min Rain = 0
KWE1 161744Z 18006KT 15/03 A3012 RMK A01 T01520026  RH  043%=      5-min Rain = 0
KWE1 161745Z 18009KT 15/03 A3012 RMK A01 T01540026  RH  042%=      5-min Rain = 0
KWE1 161746Z 19006KT 16/03 A3012 RMK A01 T01550025  RH  041%=      5-min Rain = 0
KWE1 161747Z 19009KT 16/02 A3012 RMK A01 T01570024  RH  041%=      5-min Rain = 0
KWE1 161748Z 20008KT 16/02 A3012 RMK A01 T01570023  RH  040%=      5-min Rain = 0
KWE1 161749Z 19006KT 16/02 A3012 RMK A01 T01580023  RH  040%=      5-min Rain = 0
KWE1 161750Z 18009KT 16/03 A3012 RMK A01 T01590025  RH  040%=      5-min Rain = 0
KWE1 161751Z 18010KT 16/02 A3012 RMK A01 T01610024  RH  040%=      5-min Rain = 0
KWE1 161752Z 18006KT 16/02 A3012 RMK A01 T01600023  RH  040%=      5-min Rain = 0
KWE1 161753Z 18009KT 16/02 A3012 RMK A01 T01610024  RH  040%=      5-min Rain = 0
KWE1 161754Z 20008KT 16/02 A3012 RMK A01 T01610023  RH  039%=      5-min Rain = 0
KWE1 161755Z 18007KT 16/03 A3012 RMK A01 T01620025  RH  040%=      5-min Rain = 0
KWE1 161756Z 18010KT 16/03 A3011 RMK A01 T01640025  RH  039%=      5-min Rain = 0
KWE1 161757Z 19009KT 17/03 A3011 RMK A01 T01650025  RH  039%=      5-min Rain = 0
KWE1 161758Z 19008KT 17/03 A3011 RMK A01 T01660026  RH  039%=      5-min Rain = 0
KWE1 161759Z 17008KT 17/02 A3011 RMK A01 T01650024  RH  039%=      5-min Rain = 0
KWE1 161800Z 19007KT 17/03 A3011 RMK A01 T01650025  RH  039%=      5-min Rain = 0
KWE1 161801Z 20007KT 17/03 A3011 RMK A01 T01660026  RH  039%=      5-min Rain = 0
KWE1 161802Z 21009KT 17/02 A3011 RMK A01 T01660024  RH  038%=      5-min Rain = 0
KWE1 161803Z 20009KT 17/02 A3011 RMK A01 T01660024  RH  038%=      5-min Rain = 0
KWE1 161804Z 17010KT 17/02 A3011 RMK A01 T01650023  RH  038%=      5-min Rain = 0
KWE1 161805Z 19011KT 17/02 A3011 RMK A01 T01660022  RH  038%=      5-min Rain = 0
KWE1 161806Z 20010KT 17/02 A3011 RMK A01 T01670021  RH  037%=      5-min Rain = 0
KWE1 161807Z 20010KT 17/02 A3011 RMK A01 T01680020  RH  037%=      5-min Rain = 0
KWE1 161808Z 18010KT 17/02 A3011 RMK A01 T01680020  RH  037%=      5-min Rain = 0
KWE1 161809Z 19012KT 17/02 A3011 RMK A01 T01690022  RH  037%=      5-min Rain = 0
KWE1 161810Z 18011KT 17/02 A301 RMK A01 T01710020  RH  036%=      5-min Rain = 0
KWE1 161811Z 19010KT 17/02 A301 RMK A01 T01730021  RH  036%=      5-min Rain = 0
KWE1 161812Z 20009KT 18/02 A301 RMK A01 T01750021  RH  036%=      5-min Rain = 0
KWE1 161813Z 20011KT 18/02 A301 RMK A01 T01760020  RH  035%=      5-min Rain = 0
KWE1 161814Z 20011KT 18/02 A301 RMK A01 T01750017  RH  035%=      5-min Rain = 0
KWE1 161815Z 21009KT 17/02 A301 RMK A01 T01730017  RH  035%=      5-min Rain = 0
KWE1 161816Z 20008KT 17/02 A301 RMK A01 T01730018  RH  035%=      5-min Rain = 0
KWE1 161817Z 18011KT 17/02 A301 RMK A01 T01740019  RH  035%=      5-min Rain = 0
KWE1 161818Z 18012KT 17/02 A301 RMK A01 T01740019  RH  035%=      5-min Rain = 0
KWE1 161819Z 18009KT 17/02 A301 RMK A01 T01740019  RH  035%=      5-min Rain = 0
KWE1 161820Z 19009KT 17/02 A301 RMK A01 T01730019  RH  036%=      5-min Rain = 0
KWE1 161821Z 19007KT 17/02 A3009 RMK A01 T01740020  RH  036%=      5-min Rain = 0
KWE1 161822Z 17008KT 18/02 A3009 RMK A01 T01770023  RH  036%=      5-min Rain = 0
KWE1 161823Z 18009KT 18/02 A3009 RMK A01 T01780022  RH  035%=      5-min Rain = 0
KWE1 161824Z 18009KT 18/02 A3009 RMK A01 T01780021  RH  035%=      5-min Rain = 0
KWE1 161825Z 18007KT 18/02 A3009 RMK A01 T01770020  RH  035%=      5-min Rain = 0
KWE1 161826Z 18008KT 18/02 A3009 RMK A01 T01760021  RH  035%=      5-min Rain = 0
KWE1 161827Z 19007KT 18/02 A3009 RMK A01 T01760020  RH  035%=      5-min Rain = 0
KWE1 161828Z 18007KT 18/02 A3009 RMK A01 T01760021  RH  035%=      5-min Rain = 0
KWE1 161829Z 20007KT 18/02 A3009 RMK A01 T01790024  RH  036%=      5-min Rain = 0
KWE1 161830Z 20007KT 18/02 A3008 RMK A01 T01800023  RH  035%=      5-min Rain = 0
KWE1 161831Z 17008KT 18/02 A3008 RMK A01 T01820024  RH  035%=      5-min Rain = 0
KWE1 161832Z 18010KT 18/02 A3008 RMK A01 T01840023  RH  034%=      5-min Rain = 0
KWE1 161833Z 16009KT 19/02 A3008 RMK A01 T01850022  RH  034%=      5-min Rain = 0
KWE1 161834Z 18010KT 19/03 A3008 RMK A01 T01870026  RH  034%=      5-min Rain = 0
KWE1 161835Z 18011KT 19/03 A3008 RMK A01 T01890025  RH  033%=      5-min Rain = 0
KWE1 161836Z 19010KT 19/02 A3008 RMK A01 T01900024  RH  033%=      5-min Rain = 0
KWE1 161837Z 18011KT 19/02 A3008 RMK A01 T01900024  RH  033%=      5-min Rain = 0
KWE1 161838Z 17011KT 19/02 A3008 RMK A01 T01910023  RH  033%=      5-min Rain = 0
KWE1 161839Z 17011KT 19/02 A3008 RMK A01 T01910022  RH  032%=      5-min Rain = 0
KWE1 161840Z 17010KT 19/02 A3008 RMK A01 T01900020  RH  032%=      5-min Rain = 0
KWE1 161841Z 17009KT 19/02 A3008 RMK A01 T01890020  RH  032%=      5-min Rain = 0
KWE1 161842Z 19009KT 19/02 A3008 RMK A01 T01900019  RH  032%=      5-min Rain = 0
KWE1 161843Z 20012KT 19/02 A3007 RMK A01 T01910016  RH  031%=      5-min Rain = 0
KWE1 161844Z 20011G16KT 19/01 A3007 RMK A01 T01930011  RH  030%=      5-min Rain = 0
KWE1 161845Z 20012KT 19/01 A3007 RMK A01 T01940010  RH  029%=      5-min Rain = 0
KWE1 161846Z 20013KT 19/01 A3007 RMK A01 T01940009  RH  029%=      5-min Rain = 0
KWE1 161847Z 21013KT 19/01 A3007 RMK A01 T01940011  RH  029%=      5-min Rain = 0
KWE1 161848Z 21013KT 19/01 A3007 RMK A01 T01930012  RH  030%=      5-min Rain = 0
KWE1 161849Z 21013KT 19/01 A3007 RMK A01 T01930013  RH  030%=      5-min Rain = 0
KWE1 161850Z 20012KT 19/02 A3007 RMK A01 T01940015  RH  030%=      5-min Rain = 0
KWE1 161851Z 21009KT 19/02 A3007 RMK A01 T01940015  RH  030%=      5-min Rain = 0
KWE1 161852Z 19009KT 19/02 A3007 RMK A01 T01940018  RH  031%=      5-min Rain = 0
KWE1 161853Z 19010KT 20/02 A3007 RMK A01 T01960019  RH  031%=      5-min Rain = 0
KWE1 161854Z 18012KT 20/02 A3007 RMK A01 T01960018  RH  031%=      5-min Rain = 0
KWE1 161855Z 18013KT 20/02 A3007 RMK A01 T01970015  RH  030%=      5-min Rain = 0
KWE1 161856Z 17012KT 19/01 A3006 RMK A01 T01940014  RH  030%=      5-min Rain = 0
KWE1 161857Z 18009KT 19/01 A3006 RMK A01 T01930014  RH  030%=      5-min Rain = 0
KWE1 161858Z 17007KT 19/02 A3006 RMK A01 T01930015  RH  030%=      5-min Rain = 0
KWE1 161859Z 18010G15KT 19/02 A3006 RMK A01 T01930015  RH  030%=      5-min Rain = 0
KWE1 161900Z 18010G15KT 19/02 A3006 RMK A01 T01940016  RH  030%=      5-min Rain = 0
KWE1 161901Z 17011G16KT 20/02 A3006 RMK A01 T01950016  RH  030%=      5-min Rain = 0
KWE1 161902Z 19013KT 20/02 A3006 RMK A01 T01950017  RH  031%=      5-min Rain = 0
KWE1 161903Z 19010KT 20/02 A3006 RMK A01 T01970018  RH  030%=      5-min Rain = 0
KWE1 161904Z 19010KT 20/02 A3006 RMK A01 T01970017  RH  030%=      5-min Rain = 0
KWE1 161905Z 19010KT 20/02 A3006 RMK A01 T01980017  RH  030%=      5-min Rain = 0
KWE1 161906Z 19011KT 20/02 A3006 RMK A01 T01960015  RH  030%=      5-min Rain = 0
KWE1 161907Z 19009KT 20/02 A3006 RMK A01 T01950016  RH  030%=      5-min Rain = 0
KWE1 161908Z 17008KT 20/02 A3006 RMK A01 T01960017  RH  030%=      5-min Rain = 0
KWE1 161909Z 19009KT 20/02 A3006 RMK A01 T01970016  RH  030%=      5-min Rain = 0
KWE1 161910Z 20008KT 20/02 A3006 RMK A01 T01980015  RH  030%=      5-min Rain = 0
KWE1 161911Z 17010KT 20/02 A3006 RMK A01 T01980017  RH  030%=      5-min Rain = 0
KWE1 161912Z 18009KT 20/02 A3005 RMK A01 T01990018  RH  030%=      5-min Rain = 0
KWE1 161913Z 19008KT 20/02 A3005 RMK A01 T02000017  RH  030%=      5-min Rain = 0
KWE1 161914Z 18009KT 20/02 A3005 RMK A01 T02010016  RH  029%=      5-min Rain = 0
KWE1 161915Z 17008KT 20/02 A3005 RMK A01 T02000016  RH  029%=      5-min Rain = 0
KWE1 161916Z 16010KT 20/02 A3005 RMK A01 T02000016  RH  029%=      5-min Rain = 0
KWE1 161917Z 15009KT 20/02 A3005 RMK A01 T01990017  RH  030%=      5-min Rain = 0
KWE1 161918Z 17008KT 20/02 A3005 RMK A01 T01990019  RH  030%=      5-min Rain = 0
KWE1 161919Z 17009G15KT 20/02 A3005 RMK A01 T01990019  RH  030%=      5-min Rain = 0
KWE1 161920Z 18012KT 20/02 A3005 RMK A01 T01980017  RH  030%=      5-min Rain = 0
KWE1 161921Z 16010KT 20/02 A3005 RMK A01 T01960015  RH  030%=      5-min Rain = 0
KWE1 161922Z 16012KT 20/02 A3005 RMK A01 T01950016  RH  030%=      5-min Rain = 0
KWE1 161923Z 16011KT 19/02 A3005 RMK A01 T01940015  RH  030%=      5-min Rain = 0
KWE1 161924Z 15011KT 19/02 A3005 RMK A01 T01930015  RH  030%=      5-min Rain = 0
KWE1 161925Z 17011KT 19/02 A3005 RMK A01 T01920015  RH  031%=      5-min Rain = 0
KWE1 161926Z 15009KT 19/02 A3004 RMK A01 T01930015  RH  031%=      5-min Rain = 0
KWE1 161927Z 18011KT 19/01 A3004 RMK A01 T01920014  RH  030%=      5-min Rain = 0
KWE1 161928Z 17011KT 19/01 A3004 RMK A01 T01920014  RH  030%=      5-min Rain = 0
KWE1 161929Z 18009KT 19/01 A3004 RMK A01 T01910013  RH  030%=      5-min Rain = 0
KWE1 161930Z 18009G14KT 19/01 A3004 RMK A01 T01910013  RH  031%=      5-min Rain = 0
KWE1 161931Z 18011KT 19/01 A3004 RMK A01 T01900013  RH  030%=      5-min Rain = 0
KWE1 161932Z 18011KT 19/01 A3004 RMK A01 T01890014  RH  031%=      5-min Rain = 0
KWE1 161933Z 18009G14KT 19/02 A3004 RMK A01 T01900015  RH  031%=      5-min Rain = 0
KWE1 161934Z 17008KT 19/02 A3004 RMK A01 T01910016  RH  031%=      5-min Rain = 0
KWE1 161935Z 18012KT 19/01 A3004 RMK A01 T01920014  RH  030%=      5-min Rain = 0
KWE1 161936Z 19011KT 19/01 A3004 RMK A01 T01920009  RH  029%=      5-min Rain = 0
KWE1 161937Z 17011KT 19/01 A3004 RMK A01 T01920008  RH  029%=      5-min Rain = 0
KWE1 161938Z 17011KT 19/01 A3003 RMK A01 T01920006  RH  029%=      5-min Rain = 0
KWE1 161939Z 18011KT 19/01 A3003 RMK A01 T01910005  RH  029%=      5-min Rain = 0
KWE1 161940Z 19012KT 19/01 A3003 RMK A01 T01900007  RH  029%=      5-min Rain = 0
KWE1 161941Z 18011KT 19/01 A3003 RMK A01 T01900008  RH  029%=      5-min Rain = 0
KWE1 161942Z 17010KT 19/01 A3003 RMK A01 T01910009  RH  029%=      5-min Rain = 0
KWE1 161943Z 17013KT 19/01 A3003 RMK A01 T01910008  RH  029%=      5-min Rain = 0
KWE1 161944Z 18012KT 19/01 A3003 RMK A01 T01910009  RH  029%=      5-min Rain = 0
KWE1 161945Z 19011KT 19/01 A3003 RMK A01 T01900009  RH  030%=      5-min Rain = 0
KWE1 161946Z 18013KT 19/01 A3003 RMK A01 T01900010  RH  030%=      5-min Rain = 0
KWE1 161947Z 18011KT 19/01 A3003 RMK A01 T01890010  RH  030%=      5-min Rain = 0
KWE1 161948Z 18012KT 19/01 A3003 RMK A01 T01880011  RH  030%=      5-min Rain = 0
KWE1 161949Z 19015KT 19/01 A3003 RMK A01 T01870010  RH  030%=      5-min Rain = 0
KWE1 161950Z 18013G18KT 19/01 A3003 RMK A01 T01860010  RH  031%=      5-min Rain = 0
KWE1 161951Z 19013KT 19/01 A3003 RMK A01 T01860010  RH  031%=      5-min Rain = 0
KWE1 161952Z 20011KT 19/01 A3003 RMK A01 T01860010  RH  031%=      5-min Rain = 0
KWE1 161953Z 20011KT 19/01 A3003 RMK A01 T01870012  RH  031%=      5-min Rain = 0
KWE1 161954Z 19012KT 19/01 A3003 RMK A01 T01880011  RH  031%=      5-min Rain = 0
KWE1 161955Z 19011KT 19/01 A3003 RMK A01 T01880011  RH  030%=      5-min Rain = 0
KWE1 161956Z 19012KT 19/01 A3003 RMK A01 T01890011  RH  030%=      5-min Rain = 0
KWE1 161957Z 18011KT 19/01 A3003 RMK A01 T01880010  RH  030%=      5-min Rain = 0
KWE1 161958Z 17012KT 19/01 A3003 RMK A01 T01880011  RH  030%=      5-min Rain = 0
KWE1 161959Z 17012KT 19/01 A3003 RMK A01 T01890010  RH  030%=      5-min Rain = 0
KWE1 162000Z 17010KT 19/01 A3003 RMK A01 T01890010  RH  030%=      5-min Rain = 0
KWE1 162001Z 18009KT 19/01 A3003 RMK A01 T01890009  RH  030%=      5-min Rain = 0
KWE1 162002Z 18010KT 19/01 A3003 RMK A01 T01880010  RH  030%=      5-min Rain = 0
KWE1 162003Z 17011KT 19/01 A3003 RMK A01 T01890011  RH  030%=      5-min Rain = 0
KWE1 162004Z 17010KT 19/01 A3002 RMK A01 T01890010  RH  030%=      5-min Rain = 0
KWE1 162005Z 17012KT 19/01 A3003 RMK A01 T01880010  RH  030%=      5-min Rain = 0
KWE1 162006Z 18013KT 19/01 A3003 RMK A01 T01870010  RH  030%=      5-min Rain = 0
KWE1 162007Z 18012KT 19/01 A3003 RMK A01 T01860010  RH  031%=      5-min Rain = 0
KWE1 162008Z 16011KT 19/01 A3003 RMK A01 T01860012  RH  031%=      5-min Rain = 0
KWE1 162009Z 17012KT 19/01 A3003 RMK A01 T01880012  RH  031%=      5-min Rain = 0
KWE1 162010Z 16011KT 19/01 A3002 RMK A01 T01880011  RH  030%=      5-min Rain = 0
KWE1 162011Z 17011KT 19/01 A3002 RMK A01 T01880010  RH  030%=      5-min Rain = 0
KWE1 162012Z 16014KT 19/01 A3002 RMK A01 T01890012  RH  031%=      5-min Rain = 0
KWE1 162013Z 16013KT 19/01 A3002 RMK A01 T01890010  RH  030%=      5-min Rain = 0
KWE1 162014Z 17010KT 19/01 A3002 RMK A01 T01890011  RH  030%=      5-min Rain = 0
KWE1 162015Z 17008KT 19/01 A3002 RMK A01 T01890011  RH  030%=      5-min Rain = 0
KWE1 162016Z 18010KT 19/01 A3002 RMK A01 T01890013  RH  031%=      5-min Rain = 0
KWE1 162017Z 18010KT 19/01 A3002 RMK A01 T01910012  RH  030%=      5-min Rain = 0
KWE1 162018Z 19008KT 19/01 A3002 RMK A01 T01910013  RH  030%=      5-min Rain = 0
KWE1 162019Z 18012KT 19/01 A3002 RMK A01 T01920013  RH  030%=      5-min Rain = 0
KWE1 162020Z 17010KT 19/01 A3002 RMK A01 T01920013  RH  030%=      5-min Rain = 0
KWE1 162021Z 15010KT 19/01 A3002 RMK A01 T01920013  RH  030%=      5-min Rain = 0
KWE1 162022Z 17011KT 19/01 A3002 RMK A01 T01930013  RH  030%=      5-min Rain = 0
KWE1 162023Z 17011KT 19/01 A3002 RMK A01 T01930012  RH  030%=      5-min Rain = 0
KWE1 162024Z 17012KT 19/01 A3002 RMK A01 T01930013  RH  030%=      5-min Rain = 0
KWE1 162025Z 16010KT 19/01 A3002 RMK A01 T01920012  RH  030%=      5-min Rain = 0
KWE1 162026Z 19012KT 19/01 A3002 RMK A01 T01910013  RH  030%=      5-min Rain = 0
KWE1 162027Z 18011KT 19/01 A3002 RMK A01 T01910013  RH  030%=      5-min Rain = 0
KWE1 162028Z 18012KT 19/01 A3002 RMK A01 T01900014  RH  031%=      5-min Rain = 0
KWE1 162029Z 18011KT 19/01 A3002 RMK A01 T01910013  RH  030%=      5-min Rain = 0
KWE1 162030Z 16013KT 19/01 A3002 RMK A01 T01910013  RH  031%=      5-min Rain = 0
KWE1 162031Z 17012G17KT 19/01 A3001 RMK A01 T01900013  RH  030%=      5-min Rain = 0
KWE1 162032Z 17015KT 19/01 A3001 RMK A01 T01910014  RH  031%=      5-min Rain = 0
KWE1 162033Z 19013KT 19/02 A3001 RMK A01 T01910015  RH  031%=      5-min Rain = 0
KWE1 162034Z 18012KT 19/01 A3001 RMK A01 T01910014  RH  030%=      5-min Rain = 0
KWE1 162035Z 17010KT 19/01 A3001 RMK A01 T01910014  RH  031%=      5-min Rain = 0
KWE1 162036Z 18011KT 19/02 A3001 RMK A01 T01920015  RH  031%=      5-min Rain = 0
KWE1 162037Z 17012KT 19/01 A3001 RMK A01 T01930013  RH  030%=      5-min Rain = 0
KWE1 162038Z 17010KT 19/01 A3002 RMK A01 T01930013  RH  030%=      5-min Rain = 0
KWE1 162039Z 17009KT 19/01 A3002 RMK A01 T01920013  RH  030%=      5-min Rain = 0
KWE1 162040Z 17015KT 19/01 A3002 RMK A01 T01940014  RH  030%=      5-min Rain = 0
KWE1 162041Z 17014KT 19/01 A3001 RMK A01 T01940012  RH  030%=      5-min Rain = 0
KWE1 162042Z 17014KT 19/01 A3001 RMK A01 T01930012  RH  030%=      5-min Rain = 0
KWE1 162043Z 18014KT 19/01 A3002 RMK A01 T01920014  RH  030%=      5-min Rain = 0
KWE1 162044Z 17010KT 19/02 A3002 RMK A01 T01920015  RH  031%=      5-min Rain = 0
KWE1 162045Z 18008KT 19/02 A3002 RMK A01 T01930016  RH  031%=      5-min Rain = 0
KWE1 162046Z 18012KT 20/02 A3001 RMK A01 T01960018  RH  030%=      5-min Rain = 0
KWE1 162047Z 18010KT 20/02 A3002 RMK A01 T01970015  RH  030%=      5-min Rain = 0
KWE1 162048Z 18011KT 20/02 A3002 RMK A01 T01980016  RH  030%=      5-min Rain = 0
KWE1 162049Z 18011KT 20/02 A3002 RMK A01 T02000016  RH  029%=      5-min Rain = 0
KWE1 162050Z 16012KT 20/01 A3002 RMK A01 T02000014  RH  029%=      5-min Rain = 0
KWE1 162051Z 17014KT 20/01 A3002 RMK A01 T02000014  RH  029%=      5-min Rain = 0
KWE1 162052Z 16012KT 20/02 A3002 RMK A01 T01990015  RH  029%=      5-min Rain = 0
KWE1 162053Z 16011KT 20/02 A3002 RMK A01 T02000015  RH  029%=      5-min Rain = 0
KWE1 162054Z 17009KT 20/01 A3002 RMK A01 T02000014  RH  029%=      5-min Rain = 0
KWE1 162055Z 17009KT 20/02 A3002 RMK A01 T02000015  RH  029%=      5-min Rain = 0
KWE1 162056Z 19015KT 20/02 A3002 RMK A01 T02010018  RH  030%=      5-min Rain = 0
KWE1 162057Z 19015KT 20/02 A3002 RMK A01 T02010017  RH  029%=      5-min Rain = 0
KWE1 162058Z 20010KT 20/02 A3002 RMK A01 T01980016  RH  030%=      5-min Rain = 0
KWE1 162059Z 20011KT 20/02 A3002 RMK A01 T01980017  RH  030%=      5-min Rain = 0
KWE1 162100Z 18011KT 20/02 A3002 RMK A01 T01980016  RH  030%=      5-min Rain = 0
KWE1 162101Z 18012KT 20/02 A3002 RMK A01 T01970015  RH  030%=      5-min Rain = 0
KWE1 162102Z 18010KT 20/02 A3001 RMK A01 T01960015  RH  030%=      5-min Rain = 0
KWE1 162103Z 18012G17KT 20/02 A3001 RMK A01 T01970016  RH  030%=      5-min Rain = 0
KWE1 162104Z 19013KT 20/02 A3002 RMK A01 T01970017  RH  030%=      5-min Rain = 0
KWE1 162105Z 19012KT 20/02 A3001 RMK A01 T01970017  RH  030%=      5-min Rain = 0
KWE1 162106Z 19016KT 20/02 A3001 RMK A01 T01970016  RH  030%=      5-min Rain = 0
KWE1 162107Z 19012KT 20/01 A3001 RMK A01 T01960014  RH  030%=      5-min Rain = 0
KWE1 162108Z 18010KT 20/02 A3001 RMK A01 T01960016  RH  030%=      5-min Rain = 0
KWE1 162109Z 18013KT 20/02 A3001 RMK A01 T01970016  RH  030%=      5-min Rain = 0
KWE1 162110Z 18013KT 20/02 A3001 RMK A01 T01970016  RH  030%=      5-min Rain = 0
KWE1 162111Z 19013KT 20/02 A3001 RMK A01 T01980016  RH  030%=      5-min Rain = 0
KWE1 162112Z 19015KT 20/02 A3001 RMK A01 T01980015  RH  029%=      5-min Rain = 0
KWE1 162113Z 20012KT 20/01 A3001 RMK A01 T01960012  RH  029%=      5-min Rain = 0
KWE1 162114Z 20010KT 19/01 A3001 RMK A01 T01940012  RH  030%=      5-min Rain = 0
KWE1 162115Z 20012KT 19/01 A3001 RMK A01 T01930013  RH  030%=      5-min Rain = 0
KWE1 162116Z 19012KT 19/01 A3001 RMK A01 T01940013  RH  030%=      5-min Rain = 0
KWE1 162117Z 19012KT 19/01 A3001 RMK A01 T01940013  RH  030%=      5-min Rain = 0
KWE1 162118Z 19011KT 19/01 A3001 RMK A01 T01940012  RH  030%=      5-min Rain = 0
KWE1 162119Z 18011KT 20/01 A3001 RMK A01 T01950013  RH  029%=      5-min Rain = 0
KWE1 162120Z 16012KT 20/01 A3001 RMK A01 T01960011  RH  029%=      5-min Rain = 0
KWE1 162121Z 17011KT 20/01 A3001 RMK A01 T01960010  RH  029%=      5-min Rain = 0
KWE1 162122Z 16011KT 20/01 A3001 RMK A01 T01960010  RH  029%=      5-min Rain = 0
KWE1 162123Z 17011KT 20/01 A3001 RMK A01 T01950010  RH  029%=      5-min Rain = 0
KWE1 162124Z 17011KT 20/01 A3001 RMK A01 T01950010  RH  029%=      5-min Rain = 0
KWE1 162125Z 17011KT 20/01 A3001 RMK A01 T01950009  RH  029%=      5-min Rain = 0
KWE1 162126Z 19010KT 20/01 A3001 RMK A01 T01950009  RH  029%=      5-min Rain = 0
KWE1 162127Z 17011KT 20/01 A3001 RMK A01 T01960011  RH  029%=      5-min Rain = 0
KWE1 162128Z 16015KT 20/01 A30 RMK A01 T01960012  RH  029%=      5-min Rain = 0
KWE1 162129Z 17012KT 20/01 A3001 RMK A01 T01960011  RH  029%=      5-min Rain = 0
KWE1 162130Z 17012KT 20/01 A30 RMK A01 T01950012  RH  029%=      5-min Rain = 0
KWE1 162131Z 19013KT 19/01 A30 RMK A01 T01940011  RH  029%=      5-min Rain = 0
KWE1 162132Z 19014KT 19/01 A30 RMK A01 T01920009  RH  029%=      5-min Rain = 0
KWE1 162133Z 18009KT 19/01 A3001 RMK A01 T01900009  RH  030%=      5-min Rain = 0
KWE1 162134Z 18008KT 19/01 A3001 RMK A01 T01900010  RH  030%=      5-min Rain = 0
KWE1 162135Z 17011KT 19/01 A3001 RMK A01 T01910011  RH  030%=      5-min Rain = 0
KWE1 162136Z 17011KT 19/01 A30 RMK A01 T01910010  RH  030%=      5-min Rain = 0
KWE1 162137Z 18011KT 19/01 A30 RMK A01 T01910009  RH  030%=      5-min Rain = 0
KWE1 162138Z 17010KT 19/01 A30 RMK A01 T01910010  RH  030%=      5-min Rain = 0
KWE1 162139Z 17010G15KT 19/01 A30 RMK A01 T01910011  RH  030%=      5-min Rain = 0
KWE1 162140Z 17012KT 19/01 A30 RMK A01 T01920011  RH  030%=      5-min Rain = 0
KWE1 162141Z 16011KT 19/01 A30 RMK A01 T01920012  RH  030%=      5-min Rain = 0
KWE1 162142Z 17012KT 19/01 A30 RMK A01 T01920012  RH  030%=      5-min Rain = 0
KWE1 162143Z 17012KT 19/01 A30 RMK A01 T01920012  RH  030%=      5-min Rain = 0
KWE1 162144Z 16014KT 19/01 A30 RMK A01 T01910012  RH  030%=      5-min Rain = 0
KWE1 162145Z 16012KT 19/01 A30 RMK A01 T01910012  RH  030%=      5-min Rain = 0
KWE1 162146Z 16015KT 19/01 A30 RMK A01 T01900012  RH  030%=      5-min Rain = 0
KWE1 162147Z 17014KT 19/01 A30 RMK A01 T01900012  RH  030%=      5-min Rain = 0
KWE1 162148Z 18013KT 19/01 A30 RMK A01 T01900012  RH  031%=      5-min Rain = 0
KWE1 162149Z 17013KT 19/01 A30 RMK A01 T01890013  RH  031%=      5-min Rain = 0
KWE1 162150Z 17011KT 19/01 A30 RMK A01 T01890013  RH  031%=      5-min Rain = 0
KWE1 162151Z 18012KT 19/01 A30 RMK A01 T01890014  RH  031%=      5-min Rain = 0
KWE1 162152Z 18014KT 19/01 A30 RMK A01 T01890014  RH  031%=      5-min Rain = 0
KWE1 162153Z 18013KT 19/01 A30 RMK A01 T01890014  RH  031%=      5-min Rain = 0
KWE1 162154Z 18011KT 19/02 A30 RMK A01 T01890015  RH  031%=      5-min Rain = 0
KWE1 162155Z 18009KT 19/02 A30 RMK A01 T01890016  RH  031%=      5-min Rain = 0
KWE1 162156Z 18008KT 19/02 A30 RMK A01 T01890017  RH  032%=      5-min Rain = 0
KWE1 162157Z 18009KT 19/02 A30 RMK A01 T01890017  RH  032%=      5-min Rain = 0
KWE1 162158Z 18010KT 19/02 A30 RMK A01 T01890017  RH  032%=      5-min Rain = 0
KWE1 162159Z 18010KT 19/02 A30 RMK A01 T01880015  RH  031%=      5-min Rain = 0
KWE1 162200Z 18009KT 19/02 A30 RMK A01 T01880015  RH  031%=      5-min Rain = 0
KWE1 162201Z 17009KT 19/02 A30 RMK A01 T01880015  RH  032%=      5-min Rain = 0
KWE1 162202Z 19008KT 19/02 A30 RMK A01 T01880016  RH  032%=      5-min Rain = 0
KWE1 162203Z 18007KT 19/02 A30 RMK A01 T01870016  RH  032%=      5-min Rain = 0
KWE1 162204Z 18008KT 19/02 A30 RMK A01 T01870016  RH  032%=      5-min Rain = 0
KWE1 162205Z 18008KT 19/02 A30 RMK A01 T01870015  RH  032%=      5-min Rain = 0
KWE1 162206Z 19009KT 19/02 A30 RMK A01 T01870016  RH  032%=      5-min Rain = 0
KWE1 162207Z 19009KT 19/02 A30 RMK A01 T01870016  RH  032%=      5-min Rain = 0
KWE1 162208Z 20011KT 19/02 A30 RMK A01 T01870019  RH  032%=      5-min Rain = 0
KWE1 162209Z 19013KT 19/02 A30 RMK A01 T01870019  RH  033%=      5-min Rain = 0
KWE1 162210Z 19010KT 19/02 A30 RMK A01 T01860019  RH  033%=      5-min Rain = 0
KWE1 162211Z 19014KT 19/02 A30 RMK A01 T01860019  RH  033%=      5-min Rain = 0
KWE1 162212Z 18013KT 19/02 A30 RMK A01 T01860019  RH  033%=      5-min Rain = 0
KWE1 162213Z 19012KT 19/02 A30 RMK A01 T01850018  RH  033%=      5-min Rain = 0
KWE1 162214Z 18012KT 19/02 A30 RMK A01 T01850019  RH  033%=      5-min Rain = 0
KWE1 162215Z 19013KT 18/02 A30 RMK A01 T01840018  RH  033%=      5-min Rain = 0
KWE1 162216Z 19012KT 18/02 A30 RMK A01 T01840018  RH  033%=      5-min Rain = 0
KWE1 162217Z 18010KT 18/02 A30 RMK A01 T01840019  RH  033%=      5-min Rain = 0
KWE1 162218Z 18012KT 18/02 A30 RMK A01 T01840019  RH  033%=      5-min Rain = 0
KWE1 162219Z 19011KT 18/02 A30 RMK A01 T01840019  RH  033%=      5-min Rain = 0
KWE1 162220Z 18011KT 18/02 A30 RMK A01 T01840020  RH  034%=      5-min Rain = 0
KWE1 162221Z 19010KT 18/02 A30 RMK A01 T01830021  RH  034%=      5-min Rain = 0
KWE1 162222Z 19011KT 18/02 A30 RMK A01 T01830021  RH  034%=      5-min Rain = 0
KWE1 162223Z 19012G17KT 18/02 A30 RMK A01 T01830022  RH  034%=      5-min Rain = 0
KWE1 162224Z 19013KT 18/02 A30 RMK A01 T01820021  RH  034%=      5-min Rain = 0
KWE1 162225Z 19011KT 18/02 A30 RMK A01 T01820021  RH  034%=      5-min Rain = 0
KWE1 162226Z 19011KT 18/02 A30 RMK A01 T01810021  RH  034%=      5-min Rain = 0
KWE1 162227Z 19012KT 18/02 A30 RMK A01 T01810020  RH  034%=      5-min Rain = 0
KWE1 162228Z 19011KT 18/02 A30 RMK A01 T01810020  RH  034%=      5-min Rain = 0
KWE1 162229Z 19012KT 18/02 A30 RMK A01 T01810020  RH  034%=      5-min Rain = 0
KWE1 162230Z 19009KT 18/02 A30 RMK A01 T01810020  RH  034%=      5-min Rain = 0
KWE1 162231Z 19011KT 18/02 A30 RMK A01 T01800021  RH  034%=      5-min Rain = 0
KWE1 162232Z 20009KT 18/02 A30 RMK A01 T01810021  RH  034%=      5-min Rain = 0
KWE1 162233Z 19010KT 18/02 A30 RMK A01 T01810022  RH  034%=      5-min Rain = 0
KWE1 162234Z 19008KT 18/02 A30 RMK A01 T01800021  RH  034%=      5-min Rain = 0
KWE1 162235Z 19011KT 18/02 A30 RMK A01 T01800022  RH  035%=      5-min Rain = 0
KWE1 162236Z 19011KT 18/02 A2999 RMK A01 T01810021  RH  034%=      5-min Rain = 0
KWE1 162237Z 19010KT 18/02 A2999 RMK A01 T01810021  RH  034%=      5-min Rain = 0
KWE1 162238Z 19012KT 18/02 A2999 RMK A01 T01820022  RH  034%=      5-min Rain = 0
KWE1 162239Z 19010KT 18/02 A2999 RMK A01 T01830021  RH  034%=      5-min Rain = 0
KWE1 162240Z 18010KT 18/02 A2999 RMK A01 T01830021  RH  034%=      5-min Rain = 0
KWE1 162241Z 18008KT 18/02 A2999 RMK A01 T01840021  RH  034%=      5-min Rain = 0
KWE1 162242Z 19007KT 18/02 A2999 RMK A01 T01840022  RH  034%=      5-min Rain = 0
KWE1 162243Z 19009KT 19/02 A2999 RMK A01 T01850023  RH  034%=      5-min Rain = 0
KWE1 162244Z 18012KT 19/02 A2999 RMK A01 T01860021  RH  033%=      5-min Rain = 0
KWE1 162245Z 19010KT 19/02 A2999 RMK A01 T01860020  RH  033%=      5-min Rain = 0
KWE1 162246Z 18008KT 19/02 A2999 RMK A01 T01860021  RH  033%=      5-min Rain = 0
KWE1 162247Z 18010KT 19/02 A2999 RMK A01 T01860021  RH  033%=      5-min Rain = 0
KWE1 162248Z 19009KT 19/02 A2999 RMK A01 T01870021  RH  033%=      5-min Rain = 0
KWE1 162249Z 18009KT 19/02 A2999 RMK A01 T01870020  RH  033%=      5-min Rain = 0
KWE1 162250Z 18008KT 19/02 A2999 RMK A01 T01870021  RH  033%=      5-min Rain = 0
KWE1 162251Z 18006KT 19/02 A2999 RMK A01 T01880022  RH  033%=      5-min Rain = 0
KWE1 162252Z 18009KT 19/02 A2999 RMK A01 T01880022  RH  033%=      5-min Rain = 0
KWE1 162253Z 18009KT 19/02 A2999 RMK A01 T01870021  RH  033%=      5-min Rain = 0
KWE1 162254Z 19008KT 19/02 A2999 RMK A01 T01870021  RH  033%=      5-min Rain = 0
KWE1 162255Z 18009KT 19/02 A2999 RMK A01 T01870022  RH  033%=      5-min Rain = 0
KWE1 162256Z 19009KT 19/02 A2999 RMK A01 T01870022  RH  033%=      5-min Rain = 0
KWE1 162257Z 19008KT 19/02 A2999 RMK A01 T01870022  RH  033%=      5-min Rain = 0
KWE1 162258Z 19008KT 19/02 A2998 RMK A01 T01870022  RH  033%=      5-min Rain = 0
KWE1 162259Z 19008KT 19/02 A2998 RMK A01 T01870022  RH  033%=      5-min Rain = 0
KWE1 162300Z 18008KT 19/02 A2998 RMK A01 T01860023  RH  034%=      5-min Rain = 0
KWE1 162301Z 19009KT 19/02 A2998 RMK A01 T01860023  RH  034%=      5-min Rain = 0
KWE1 162302Z 19014KT 19/02 A2998 RMK A01 T01850021  RH  033%=      5-min Rain = 0
KWE1 162303Z 18010KT 19/02 A2998 RMK A01 T01850021  RH  033%=      5-min Rain = 0
KWE1 162304Z 18011KT 19/02 A2999 RMK A01 T01850021  RH  034%=      5-min Rain = 0
KWE1 162305Z 19011KT 18/02 A2998 RMK A01 T01840021  RH  033%=      5-min Rain = 0
KWE1 162306Z 18010KT 19/02 A2999 RMK A01 T01850021  RH  033%=      5-min Rain = 0
KWE1 162307Z 18008KT 18/02 A2998 RMK A01 T01840021  RH  034%=      5-min Rain = 0
KWE1 162308Z 18009KT 18/02 A2999 RMK A01 T01840022  RH  034%=      5-min Rain = 0
KWE1 162309Z 17011KT 18/02 A2998 RMK A01 T01830021  RH  034%=      5-min Rain = 0
KWE1 162310Z 18009KT 18/02 A2999 RMK A01 T01830020  RH  034%=      5-min Rain = 0
KWE1 162311Z 18009KT 18/02 A2999 RMK A01 T01830021  RH  034%=      5-min Rain = 0
KWE1 162312Z 18007KT 18/02 A2999 RMK A01 T01820021  RH  034%=      5-min Rain = 0
KWE1 162313Z 18008KT 18/02 A2999 RMK A01 T01810021  RH  034%=      5-min Rain = 0
KWE1 162314Z 18006KT 18/02 A2999 RMK A01 T01810022  RH  034%=      5-min Rain = 0
KWE1 162315Z 18006KT 18/02 A2999 RMK A01 T01800022  RH  035%=      5-min Rain = 0
KWE1 162316Z 17007KT 18/02 A2999 RMK A01 T01790022  RH  035%=      5-min Rain = 0
KWE1 162317Z 18007KT 18/02 A2999 RMK A01 T01780021  RH  035%=      5-min Rain = 0
KWE1 162318Z 18007KT 18/02 A2999 RMK A01 T01780022  RH  035%=      5-min Rain = 0
KWE1 162319Z 17007KT 18/02 A2999 RMK A01 T01780022  RH  035%=      5-min Rain = 0
KWE1 162320Z 17009KT 18/02 A2999 RMK A01 T01780022  RH  035%=      5-min Rain = 0
KWE1 162321Z 18008KT 18/02 A2999 RMK A01 T01780022  RH  035%=      5-min Rain = 0
KWE1 162322Z 18007KT 18/02 A2999 RMK A01 T01770022  RH  035%=      5-min Rain = 0
KWE1 162323Z 18007KT 18/02 A2999 RMK A01 T01770022  RH  035%=      5-min Rain = 0
KWE1 162324Z 17008KT 18/02 A2999 RMK A01 T01760023  RH  036%=      5-min Rain = 0
KWE1 162325Z 18009KT 18/02 A2999 RMK A01 T01760022  RH  036%=      5-min Rain = 0
KWE1 162326Z 18008KT 18/02 A2999 RMK A01 T01760022  RH  036%=      5-min Rain = 0
KWE1 162327Z 18008KT 18/02 A2999 RMK A01 T01760022  RH  036%=      5-min Rain = 0
KWE1 162328Z 18008KT 18/02 A2999 RMK A01 T01760022  RH  036%=      5-min Rain = 0
KWE1 162329Z 17008KT 18/02 A2999 RMK A01 T01750022  RH  036%=      5-min Rain = 0
KWE1 162330Z 18011KT 18/02 A2999 RMK A01 T01750022  RH  036%=      5-min Rain = 0
KWE1 162331Z 18009KT 18/02 A2999 RMK A01 T01750021  RH  036%=      5-min Rain = 0
KWE1 162332Z 18009KT 18/02 A2999 RMK A01 T01750022  RH  036%=      5-min Rain = 0
KWE1 162333Z 17009KT 17/02 A2999 RMK A01 T01740022  RH  036%=      5-min Rain = 0
KWE1 162334Z 17010KT 17/02 A2999 RMK A01 T01740022  RH  036%=      5-min Rain = 0
KWE1 162335Z 18008KT 17/02 A2999 RMK A01 T01740022  RH  036%=      5-min Rain = 0
KWE1 162336Z 18008KT 17/02 A2999 RMK A01 T01740022  RH  036%=      5-min Rain = 0
KWE1 162337Z 18008KT 17/02 A2999 RMK A01 T01740023  RH  036%=      5-min Rain = 0
KWE1 162338Z 18009KT 17/02 A2999 RMK A01 T01730022  RH  036%=      5-min Rain = 0
KWE1 162339Z 18009KT 17/02 A2999 RMK A01 T01730022  RH  036%=      5-min Rain = 0
KWE1 162340Z 18007KT 17/02 A2999 RMK A01 T01730022  RH  036%=      5-min Rain = 0
KWE1 162341Z 18008KT 17/02 A2999 RMK A01 T01730023  RH  036%=      5-min Rain = 0
KWE1 162342Z 18007KT 17/02 A2999 RMK A01 T01720023  RH  037%=      5-min Rain = 0
KWE1 162343Z 18007KT 17/02 A2999 RMK A01 T01720023  RH  037%=      5-min Rain = 0
KWE1 162344Z 18009KT 17/02 A2999 RMK A01 T01710023  RH  037%=      5-min Rain = 0
KWE1 162345Z 18007KT 17/02 A2999 RMK A01 T01710022  RH  037%=      5-min Rain = 0
KWE1 162346Z 18008KT 17/02 A2999 RMK A01 T01710023  RH  037%=      5-min Rain = 0
KWE1 162347Z 18007KT 17/02 A2999 RMK A01 T01710023  RH  037%=      5-min Rain = 0
KWE1 162348Z 18008KT 17/02 A2999 RMK A01 T01710023  RH  037%=      5-min Rain = 0
KWE1 162349Z 18008KT 17/02 A2999 RMK A01 T01700023  RH  037%=      5-min Rain = 0
KWE1 162350Z 18008KT 17/02 A2999 RMK A01 T01700023  RH  037%=      5-min Rain = 0
KWE1 162351Z 18007KT 17/02 A2999 RMK A01 T01690023  RH  037%=      5-min Rain = 0
KWE1 162352Z 18008KT 17/02 A2999 RMK A01 T01680023  RH  038%=      5-min Rain = 0
KWE1 162353Z 18008KT 17/02 A2999 RMK A01 T01690023  RH  038%=      5-min Rain = 0
KWE1 162354Z 18009KT 17/02 A2999 RMK A01 T01680024  RH  038%=      5-min Rain = 0
KWE1 162355Z 17009KT 17/02 A2999 RMK A01 T01680023  RH  038%=      5-min Rain = 0
KWE1 162356Z 18009KT 17/02 A2999 RMK A01 T01680023  RH  038%=      5-min Rain = 0
KWE1 162357Z 18008KT 17/02 A2999 RMK A01 T01680024  RH  038%=      5-min Rain = 0
KWE1 162358Z 18009KT 17/02 A2999 RMK A01 T01680024  RH  038%=      5-min Rain = 0
KWE1 162359Z 18009KT 17/02 A2999 RMK A01 T01670024  RH  038%=      5-min Rain = 0
KWE1 170000Z 18010KT 17/02 A2999 RMK A01 T01670024  RH  038%=      5-min Rain = 0
KWE1 170001Z 18008KT 17/02 A2999 RMK A01 T01670024  RH  038%=      5-min Rain = 0
KWE1 170002Z 18008KT 17/02 A2999 RMK A01 T01670024  RH  038%=      5-min Rain = 0
KWE1 170003Z 18008KT 17/02 A2999 RMK A01 T01660024  RH  039%=      5-min Rain = 0
KWE1 170004Z 18008KT 17/02 A2999 RMK A01 T01650024  RH  039%=      5-min Rain = 0
KWE1 170005Z 18010KT 16/02 A2999 RMK A01 T01640024  RH  039%=      5-min Rain = 0
KWE1 170006Z 18008KT 16/02 A2999 RMK A01 T01630024  RH  039%=      5-min Rain = 0
KWE1 170007Z 18008KT 16/02 A2999 RMK A01 T01630023  RH  039%=      5-min Rain = 0
KWE1 170008Z 18009KT 16/02 A2999 RMK A01 T01630023  RH  039%=      5-min Rain = 0
KWE1 170009Z 18008KT 16/02 A2999 RMK A01 T01620024  RH  039%=      5-min Rain = 0
KWE1 170010Z 18008KT 16/02 A2999 RMK A01 T01620024  RH  039%=      5-min Rain = 0
KWE1 170011Z 18009KT 16/02 A2999 RMK A01 T01610023  RH  040%=      5-min Rain = 0
KWE1 170012Z 18008KT 16/02 A2999 RMK A01 T01600023  RH  040%=      5-min Rain = 0
KWE1 170013Z 18008KT 16/02 A2999 RMK A01 T01600023  RH  040%=      5-min Rain = 0
KWE1 170014Z 18009KT 16/02 A2999 RMK A01 T01600023  RH  040%=      5-min Rain = 0
KWE1 170015Z 17010KT 16/02 A2999 RMK A01 T01600023  RH  040%=      5-min Rain = 0
KWE1 170016Z 17010KT 16/02 A2999 RMK A01 T01600023  RH  040%=      5-min Rain = 0
KWE1 170017Z 17009KT 16/02 A2999 RMK A01 T01610023  RH  040%=      5-min Rain = 0
KWE1 170018Z 17010KT 16/02 A2999 RMK A01 T01600024  RH  040%=      5-min Rain = 0
KWE1 170019Z 17009KT 16/02 A2999 RMK A01 T01590023  RH  040%=      5-min Rain = 0
KWE1 170020Z 17008KT 16/02 A2999 RMK A01 T01590023  RH  040%=      5-min Rain = 0
KWE1 170021Z 17008KT 16/02 A2999 RMK A01 T01590023  RH  040%=      5-min Rain = 0
KWE1 170022Z 17008KT 16/02 A2999 RMK A01 T01580023  RH  040%=      5-min Rain = 0
KWE1 170023Z 17008KT 16/02 A2999 RMK A01 T01570023  RH  040%=      5-min Rain = 0
KWE1 170024Z 17009KT 16/02 A2999 RMK A01 T01570023  RH  041%=      5-min Rain = 0
KWE1 170025Z 16008KT 16/02 A2999 RMK A01 T01560023  RH  041%=      5-min Rain = 0
KWE1 170026Z 17009KT 16/02 A2999 RMK A01 T01550023  RH  041%=      5-min Rain = 0
KWE1 170027Z 17008KT 15/02 A2999 RMK A01 T01540023  RH  041%=      5-min Rain = 0
KWE1 170028Z 17008KT 15/02 A2999 RMK A01 T01540023  RH  041%=      5-min Rain = 0
KWE1 170029Z 17008KT 15/02 A2999 RMK A01 T01540023  RH  041%=      5-min Rain = 0
KWE1 170030Z 17009KT 15/02 A2999 RMK A01 T01530023  RH  041%=      5-min Rain = 0
KWE1 170031Z 17010KT 15/02 A2999 RMK A01 T01530023  RH  041%=      5-min Rain = 0
KWE1 170032Z 16009KT 15/02 A2999 RMK A01 T01530022  RH  041%=      5-min Rain = 0
KWE1 170033Z 17009KT 16/02 A2999 RMK A01 T01550022  RH  041%=      5-min Rain = 0
KWE1 170034Z 17009KT 16/02 A2999 RMK A01 T01550023  RH  041%=      5-min Rain = 0
KWE1 170035Z 16009KT 15/02 A2999 RMK A01 T01540023  RH  041%=      5-min Rain = 0
KWE1 170036Z 16009KT 15/02 A2999 RMK A01 T01530022  RH  041%=      5-min Rain = 0
KWE1 170037Z 16009KT 15/02 A2999 RMK A01 T01520022  RH  042%=      5-min Rain = 0
KWE1 170038Z 16008KT 15/02 A2999 RMK A01 T01510022  RH  042%=      5-min Rain = 0
KWE1 170039Z 16010KT 15/02 A2999 RMK A01 T01510022  RH  042%=      5-min Rain = 0
KWE1 170040Z 16010KT 15/02 A2999 RMK A01 T01500022  RH  042%=      5-min Rain = 0
KWE1 170041Z 16009KT 15/02 A2999 RMK A01 T01500021  RH  042%=      5-min Rain = 0
KWE1 170042Z 16010KT 15/02 A2999 RMK A01 T01510020  RH  041%=      5-min Rain = 0
KWE1 170043Z 16009KT 15/02 A2999 RMK A01 T01510020  RH  041%=      5-min Rain = 0
KWE1 170044Z 16008KT 15/02 A2999 RMK A01 T01510019  RH  041%=      5-min Rain = 0
KWE1 170045Z 16008KT 15/02 A2999 RMK A01 T01510019  RH  041%=      5-min Rain = 0
KWE1 170046Z 16009KT 15/02 A2999 RMK A01 T01500018  RH  041%=      5-min Rain = 0
KWE1 170047Z 16009KT 15/02 A2999 RMK A01 T01500017  RH  041%=      5-min Rain = 0
KWE1 170048Z 16009KT 15/02 A2999 RMK A01 T01500016  RH  040%=      5-min Rain = 0
KWE1 170049Z 16009KT 15/01 A2999 RMK A01 T01500013  RH  039%=      5-min Rain = 0
KWE1 170050Z 16009KT 15/01 A2999 RMK A01 T01510013  RH  039%=      5-min Rain = 0
KWE1 170051Z 16008KT 15/01 A2999 RMK A01 T01510013  RH  039%=      5-min Rain = 0
KWE1 170052Z 16008KT 15/01 A2999 RMK A01 T01500013  RH  039%=      5-min Rain = 0
KWE1 170053Z 16009KT 15/01 A2999 RMK A01 T01490013  RH  040%=      5-min Rain = 0
KWE1 170054Z 16009KT 15/01 A2999 RMK A01 T01480012  RH  040%=      5-min Rain = 0
KWE1 170055Z 16009KT 15/01 A2999 RMK A01 T01480011  RH  039%=      5-min Rain = 0
KWE1 170056Z 16010KT 15/01 A2999 RMK A01 T01470010  RH  039%=      5-min Rain = 0
KWE1 170057Z 16010KT 15/01 A2999 RMK A01 T01480009  RH  039%=      5-min Rain = 0
KWE1 170058Z 16009KT 15/01 A2999 RMK A01 T01470009  RH  039%=      5-min Rain = 0
KWE1 170059Z 16010KT 15/01 A2999 RMK A01 T01470008  RH  039%=      5-min Rain = 0
KWE1 170100Z 16008KT 15/01 A2999 RMK A01 T01480007  RH  038%=      5-min Rain = 0
KWE1 170101Z 16009KT 15/01 A2999 RMK A01 T01470007  RH  038%=      5-min Rain = 0
KWE1 170102Z 16009KT 15/01 A2999 RMK A01 T01470007  RH  038%=      5-min Rain = 0
KWE1 170103Z 16009KT 15/01 A2999 RMK A01 T01470006  RH  038%=      5-min Rain = 0
KWE1 170104Z 16010KT 15/01 A2999 RMK A01 T01470006  RH  038%=      5-min Rain = 0
KWE1 170105Z 16010KT 15/01 A2999 RMK A01 T01470005  RH  038%=      5-min Rain = 0
KWE1 170106Z 16010KT 15/01 A2999 RMK A01 T01470005  RH  038%=      5-min Rain = 0
KWE1 170107Z 17009KT 15/01 A2999 RMK A01 T01460005  RH  038%=      5-min Rain = 0
KWE1 170108Z 16010KT 15/01 A2999 RMK A01 T01450005  RH  038%=      5-min Rain = 0
KWE1 170109Z 16009KT 15/00 A2999 RMK A01 T01450004  RH  038%=      5-min Rain = 0
KWE1 170110Z 16010KT 14/00 A2999 RMK A01 T01440004  RH  038%=      5-min Rain = 0
KWE1 170111Z 16010KT 15/00 A2999 RMK A01 T01450004  RH  038%=      5-min Rain = 0
KWE1 170112Z 16011KT 14/00 A2999 RMK A01 T01440004  RH  038%=      5-min Rain = 0
KWE1 170113Z 16010KT 14/00 A2999 RMK A01 T01440004  RH  039%=      5-min Rain = 0
KWE1 170114Z 16011KT 14/00 A2999 RMK A01 T01430004  RH  039%=      5-min Rain = 0
KWE1 170115Z 16011KT 14/00 A2999 RMK A01 T01430004  RH  039%=      5-min Rain = 0
KWE1 170116Z 16009KT 14/00 A2999 RMK A01 T01430004  RH  039%=      5-min Rain = 0
KWE1 170117Z 15008KT 14/00 A2999 RMK A01 T01420004  RH  039%=      5-min Rain = 0
KWE1 170118Z 15007KT 14/00 A2999 RMK A01 T01410004  RH  039%=      5-min Rain = 0
KWE1 170119Z 15010KT 14/00 A2999 RMK A01 T01390004  RH  040%=      5-min Rain = 0
KWE1 170120Z 15008KT 14/00 A2999 RMK A01 T01390004  RH  040%=      5-min Rain = 0
KWE1 170121Z 15009KT 14/00 A2999 RMK A01 T01390004  RH  040%=      5-min Rain = 0
KWE1 170122Z 15010KT 14/01 A2999 RMK A01 T01380005  RH  040%=      5-min Rain = 0
KWE1 170123Z 15009KT 14/00 A2999 RMK A01 T01370004  RH  040%=      5-min Rain = 0
KWE1 170124Z 15009KT 14/00 A30 RMK A01 T01360004  RH  040%=      5-min Rain = 0
KWE1 170125Z 15009KT 14/00 A30 RMK A01 T01350004  RH  041%=      5-min Rain = 0
KWE1 170126Z 15009KT 14/00 A30 RMK A01 T01350004  RH  041%=      5-min Rain = 0
KWE1 170127Z 15008KT 14/00 A30 RMK A01 T01350004  RH  041%=      5-min Rain = 0
KWE1 170128Z 16009KT 13/00 A30 RMK A01 T01340004  RH  041%=      5-min Rain = 0
KWE1 170129Z 15010KT 13/00 A30 RMK A01 T01340003  RH  041%=      5-min Rain = 0
KWE1 170130Z 15009KT 13/00 A30 RMK A01 T01330003  RH  041%=      5-min Rain = 0
KWE1 170131Z 15010KT 13/00 A30 RMK A01 T01330003  RH  041%=      5-min Rain = 0
KWE1 170132Z 15010KT 13/00 A30 RMK A01 T01320003  RH  041%=      5-min Rain = 0
KWE1 170133Z 15011KT 13/00 A2999 RMK A01 T01320003  RH  041%=      5-min Rain = 0
KWE1 170134Z 15009KT 13/00 A2999 RMK A01 T01310003  RH  041%=      5-min Rain = 0
KWE1 170135Z 16011KT 13/00 A2999 RMK A01 T01310002  RH  041%=      5-min Rain = 0
KWE1 170136Z 15011KT 13/00 A2999 RMK A01 T01310001  RH  041%=      5-min Rain = 0
KWE1 170137Z 16010KT 13/00 A2999 RMK A01 T01310001  RH  041%=      5-min Rain = 0
KWE1 170138Z 15011KT 13/00 A2999 RMK A01 T01310001  RH  041%=      5-min Rain = 0
KWE1 170139Z 16011KT 13/00 A2999 RMK A01 T01310000  RH  041%=      5-min Rain = 0
KWE1 170140Z 16010KT 13/00 A2999 RMK A01 T01310000  RH  041%=      5-min Rain = 0
KWE1 170141Z 16010KT 13/00 A2999 RMK A01 T01310001  RH  041%=      5-min Rain = 0
KWE1 170142Z 16010KT 13/00 A2999 RMK A01 T01310001  RH  041%=      5-min Rain = 0
KWE1 170143Z 15011KT 13/00 A2999 RMK A01 T01300001  RH  041%=      5-min Rain = 0
KWE1 170144Z 15009KT 13/00 A2999 RMK A01 T01300000  RH  041%=      5-min Rain = 0
KWE1 170145Z 16009KT 13/00 A2999 RMK A01 T01300000  RH  041%=      5-min Rain = 0
KWE1 170146Z 15009KT 13/00 A2999 RMK A01 T01290000  RH  041%=      5-min Rain = 0
KWE1 170147Z 15008KT 13/00 A2999 RMK A01 T01280001  RH  042%=      5-min Rain = 0
KWE1 170148Z 15009KT 13/00 A2999 RMK A01 T01270000  RH  042%=      5-min Rain = 0
KWE1 170149Z 15009KT 13/00 A2999 RMK A01 T01270000  RH  042%=      5-min Rain = 0
KWE1 170150Z 15009KT 13/00 A2999 RMK A01 T01260000  RH  042%=      5-min Rain = 0
KWE1 170151Z 15009KT 13/00 A2999 RMK A01 T01260000  RH  042%=      5-min Rain = 0
KWE1 170152Z 15009KT 13/00 A2999 RMK A01 T01250000  RH  042%=      5-min Rain = 0
KWE1 170153Z 15009KT 13/00 A2999 RMK A01 T01250000  RH  042%=      5-min Rain = 0
KWE1 170154Z 15010KT 12/00 A2999 RMK A01 T012400-0  RH  042%=      5-min Rain = 0
KWE1 170155Z 15009KT 12/M00 A2999 RMK A01 T01241001  RH  042%=      5-min Rain = 0
KWE1 170156Z 15009KT 12/M00 A2999 RMK A01 T01241001  RH  042%=      5-min Rain = 0
KWE1 170157Z 15009KT 12/M00 A2999 RMK A01 T01241001  RH  042%=      5-min Rain = 0
KWE1 170158Z 15010KT 12/M00 A2999 RMK A01 T01241002  RH  042%=      5-min Rain = 0
KWE1 170159Z 15010KT 12/M00 A2999 RMK A01 T01241002  RH  042%=      5-min Rain = 0
KWE1 170200Z 15011KT 12/M00 A2999 RMK A01 T01241002  RH  042%=      5-min Rain = 0
KWE1 170201Z 14009KT 12/M00 A2999 RMK A01 T01241003  RH  041%=      5-min Rain = 0
KWE1 170202Z 15010KT 13/M00 A2999 RMK A01 T01251003  RH  041%=      5-min Rain = 0
KWE1 170203Z 15011KT 13/M01 A2999 RMK A01 T01261005  RH  040%=      5-min Rain = 0
KWE1 170204Z 15011KT 13/M01 A2999 RMK A01 T01281005  RH  040%=      5-min Rain = 0
KWE1 170205Z 15012KT 13/M01 A2999 RMK A01 T01291005  RH  040%=      5-min Rain = 0
KWE1 170206Z 15011KT 13/M01 A2999 RMK A01 T01301006  RH  039%=      5-min Rain = 0
KWE1 170207Z 15011KT 13/M01 A2999 RMK A01 T01301006  RH  039%=      5-min Rain = 0
KWE1 170208Z 15009KT 13/M01 A2999 RMK A01 T01301006  RH  039%=      5-min Rain = 0
KWE1 170209Z 15010KT 13/M01 A2999 RMK A01 T01301006  RH  039%=      5-min Rain = 0
KWE1 170210Z 15011KT 13/M01 A2999 RMK A01 T01301006  RH  039%=      5-min Rain = 0
KWE1 170211Z 15011KT 13/M01 A2999 RMK A01 T01301007  RH  039%=      5-min Rain = 0
KWE1 170212Z 15011KT 13/M01 A2999 RMK A01 T01301007  RH  039%=      5-min Rain = 0
KWE1 170213Z 15012KT 13/M01 A2999 RMK A01 T01301008  RH  039%=      5-min Rain = 0
KWE1 170214Z 15011KT 13/M01 A2999 RMK A01 T01301008  RH  039%=      5-min Rain = 0
KWE1 170215Z 15012KT 13/M01 A2999 RMK A01 T01311008  RH  038%=      5-min Rain = 0
KWE1 170216Z 15011KT 13/M01 A2999 RMK A01 T01311008  RH  038%=      5-min Rain = 0
KWE1 170217Z 15010KT 13/M01 A2999 RMK A01 T01311008  RH  038%=      5-min Rain = 0
KWE1 170218Z 15010KT 13/M01 A2999 RMK A01 T01311008  RH  038%=      5-min Rain = 0
KWE1 170219Z 15010KT 13/M01 A2999 RMK A01 T01301008  RH  038%=      5-min Rain = 0
KWE1 170220Z 15009KT 13/M01 A2999 RMK A01 T01301008  RH  038%=      5-min Rain = 0
KWE1 170221Z 16012KT 13/M01 A2999 RMK A01 T01301009  RH  038%=      5-min Rain = 0
KWE1 170222Z 15011KT 13/M01 A2999 RMK A01 T01301009  RH  038%=      5-min Rain = 0
KWE1 170223Z 16011KT 13/M01 A2999 RMK A01 T01301009  RH  038%=      5-min Rain = 0
KWE1 170224Z 16011KT 13/M01 A2999 RMK A01 T01301009  RH  038%=      5-min Rain = 0
KWE1 170225Z 16011KT 13/M01 A2999 RMK A01 T01301009  RH  038%=      5-min Rain = 0
KWE1 170226Z 16011KT 13/M01 A2999 RMK A01 T01301009  RH  038%=      5-min Rain = 0
KWE1 170227Z 16010KT 13/M01 A2999 RMK A01 T01301009  RH  038%=      5-min Rain = 0
KWE1 170228Z 15010KT 13/M01 A2999 RMK A01 T01301009  RH  038%=      5-min Rain = 0
KWE1 170229Z 16010KT 13/M01 A2999 RMK A01 T01301009  RH  038%=      5-min Rain = 0
KWE1 170230Z 16010KT 13/M01 A2999 RMK A01 T01291009  RH  039%=      5-min Rain = 0
KWE1 170231Z 16010KT 13/M01 A2999 RMK A01 T01291009  RH  039%=      5-min Rain = 0
KWE1 170232Z 16009KT 13/M01 A2999 RMK A01 T01291009  RH  038%=      5-min Rain = 0
KWE1 170233Z 16010KT 13/M01 A2998 RMK A01 T01281009  RH  039%=      5-min Rain = 0
KWE1 170234Z 16009KT 13/M01 A2998 RMK A01 T01281009  RH  039%=      5-min Rain = 0
KWE1 170235Z 16010KT 13/M01 A2998 RMK A01 T01281009  RH  039%=      5-min Rain = 0
KWE1 170236Z 16010KT 13/M01 A2998 RMK A01 T01281009  RH  039%=      5-min Rain = 0
KWE1 170237Z 16009KT 13/M01 A2998 RMK A01 T01291009  RH  039%=      5-min Rain = 0
KWE1 170238Z 16009KT 13/M01 A2998 RMK A01 T01281009  RH  039%=      5-min Rain = 0
KWE1 170239Z 16009KT 13/M01 A2998 RMK A01 T01281009  RH  039%=      5-min Rain = 0
KWE1 170240Z 16010KT 13/M01 A2998 RMK A01 T01281009  RH  039%=      5-min Rain = 0
KWE1 170241Z 16011KT 13/M01 A2998 RMK A01 T01281010  RH  038%=      5-min Rain = 0
KWE1 170242Z 15011KT 13/M01 A2998 RMK A01 T01291010  RH  038%=      5-min Rain = 0
KWE1 170243Z 15010KT 13/M01 A2998 RMK A01 T01301010  RH  038%=      5-min Rain = 0
KWE1 170244Z 15009KT 13/M01 A2998 RMK A01 T01301010  RH  038%=      5-min Rain = 0
KWE1 170245Z 15009KT 13/M01 A2998 RMK A01 T01291009  RH  038%=      5-min Rain = 0
KWE1 170246Z 16009KT 13/M01 A2998 RMK A01 T01281009  RH  039%=      5-min Rain = 0
KWE1 170247Z 16009KT 13/M01 A2998 RMK A01 T01271009  RH  039%=      5-min Rain = 0
KWE1 170248Z 15009KT 13/M01 A2998 RMK A01 T01271009  RH  039%=      5-min Rain = 0
KWE1 170249Z 16010KT 13/M01 A2998 RMK A01 T01271009  RH  039%=      5-min Rain = 0
KWE1 170250Z 16009KT 13/M01 A2999 RMK A01 T01271009  RH  039%=      5-min Rain = 0
KWE1 170251Z 16010KT 13/M01 A2999 RMK A01 T01261009  RH  039%=      5-min Rain = 0
KWE1 170252Z 16011KT 13/M01 A2999 RMK A01 T01261009  RH  039%=      5-min Rain = 0
KWE1 170253Z 16009KT 13/M01 A2999 RMK A01 T01281009  RH  039%=      5-min Rain = 0
KWE1 170254Z 16009KT 13/M01 A2999 RMK A01 T01281009  RH  039%=      5-min Rain = 0
KWE1 170255Z 15010KT 13/M01 A2998 RMK A01 T01281008  RH  039%=      5-min Rain = 0
KWE1 170256Z 16011KT 13/M01 A2998 RMK A01 T01271009  RH  039%=      5-min Rain = 0
KWE1 170257Z 16010KT 13/M01 A2998 RMK A01 T01271008  RH  039%=      5-min Rain = 0
KWE1 170258Z 16010KT 13/M01 A2998 RMK A01 T01271008  RH  039%=      5-min Rain = 0
KWE1 170259Z 15010KT 13/M01 A2998 RMK A01 T01261008  RH  039%=      5-min Rain = 0
KWE1 170300Z 15010KT 13/M01 A2998 RMK A01 T01261008  RH  040%=      5-min Rain = 0
KWE1 170301Z 16011KT 13/M01 A2998 RMK A01 T01251008  RH  040%=      5-min Rain = 0
KWE1 170302Z 16011KT 13/M01 A2998 RMK A01 T01251007  RH  040%=      5-min Rain = 0
KWE1 170303Z 16012KT 13/M01 A2998 RMK A01 T01251008  RH  040%=      5-min Rain = 0
KWE1 170304Z 16011KT 13/M01 A2998 RMK A01 T01251008  RH  040%=      5-min Rain = 0
KWE1 170305Z 16011G16KT 13/M01 A2998 RMK A01 T01251007  RH  040%=      5-min Rain = 0
KWE1 170306Z 16010KT 13/M01 A2998 RMK A01 T01251007  RH  040%=      5-min Rain = 0
KWE1 170307Z 16011KT 12/M01 A2998 RMK A01 T01241007  RH  040%=      5-min Rain = 0
KWE1 170308Z 16011KT 12/M01 A2998 RMK A01 T01241007  RH  040%=      5-min Rain = 0
KWE1 170309Z 16011KT 12/M01 A2998 RMK A01 T01241006  RH  040%=      5-min Rain = 0
KWE1 170310Z 16012KT 12/M01 A2998 RMK A01 T01241006  RH  040%=      5-min Rain = 0
KWE1 170311Z 16011KT 13/M01 A2998 RMK A01 T01251006  RH  040%=      5-min Rain = 0
KWE1 170312Z 17011G17KT 13/M01 A2998 RMK A01 T01261006  RH  040%=      5-min Rain = 0
KWE1 170313Z 16013KT 13/M01 A2998 RMK A01 T01271006  RH  040%=      5-min Rain = 0
KWE1 170314Z 16013KT 13/M01 A2998 RMK A01 T01281006  RH  040%=      5-min Rain = 0
KWE1 170315Z 17012KT 13/M01 A2998 RMK A01 T01281006  RH  040%=      5-min Rain = 0
KWE1 170316Z 16012KT 13/M01 A2998 RMK A01 T01281006  RH  040%=      5-min Rain = 0
KWE1 170317Z 16012KT 13/M01 A2998 RMK A01 T01281006  RH  040%=      5-min Rain = 0
KWE1 170318Z 16009KT 13/M01 A2998 RMK A01 T01281005  RH  040%=      5-min Rain = 0
KWE1 170319Z 16012KT 13/M01 A2998 RMK A01 T01271005  RH  040%=      5-min Rain = 0
KWE1 170320Z 16014KT 13/M01 A2998 RMK A01 T01271005  RH  040%=      5-min Rain = 0
KWE1 170321Z 17012KT 13/M01 A2998 RMK A01 T01271005  RH  040%=      5-min Rain = 0
KWE1 170322Z 17013KT 13/M01 A2998 RMK A01 T01281005  RH  040%=      5-min Rain = 0
KWE1 170323Z 16011KT 13/M01 A2998 RMK A01 T01281005  RH  040%=      5-min Rain = 0
KWE1 170324Z 16012KT 13/M01 A2998 RMK A01 T01281005  RH  040%=      5-min Rain = 0
KWE1 170325Z 16011KT 13/M01 A2998 RMK A01 T01271005  RH  040%=      5-min Rain = 0
KWE1 170326Z 17013KT 13/M01 A2998 RMK A01 T01271005  RH  040%=      5-min Rain = 0
KWE1 170327Z 17013KT 13/M01 A2998 RMK A01 T01271005  RH  040%=      5-min Rain = 0
KWE1 170328Z 17012KT 13/M01 A2998 RMK A01 T01271005  RH  040%=      5-min Rain = 0
KWE1 170329Z 16012KT 13/M01 A2998 RMK A01 T01271005  RH  040%=      5-min Rain = 0
KWE1 170330Z 16012KT 13/M01 A2998 RMK A01 T01271005  RH  040%=      5-min Rain = 0
KWE1 170331Z 17011KT 13/M01 A2998 RMK A01 T01271005  RH  040%=      5-min Rain = 0
KWE1 170332Z 16012KT 13/M01 A2998 RMK A01 T01261005  RH  040%=      5-min Rain = 0
KWE1 170333Z 16011KT 13/M00 A2998 RMK A01 T01261004  RH  041%=      5-min Rain = 0
KWE1 170334Z 16013KT 13/M00 A2998 RMK A01 T01261004  RH  041%=      5-min Rain = 0
KWE1 170335Z 17013KT 13/M00 A2998 RMK A01 T01251004  RH  041%=      5-min Rain = 0
KWE1 170336Z 16011KT 13/M01 A2998 RMK A01 T01251005  RH  041%=      5-min Rain = 0
KWE1 170337Z 16012KT 13/M00 A2998 RMK A01 T01251004  RH  041%=      5-min Rain = 0
KWE1 170338Z 16013KT 12/M01 A2998 RMK A01 T01241005  RH  041%=      5-min Rain = 0
KWE1 170339Z 16012G17KT 12/M01 A2998 RMK A01 T01241005  RH  041%=      5-min Rain = 0
KWE1 170340Z 16013KT 12/M00 A2998 RMK A01 T01241004  RH  041%=      5-min Rain = 0
KWE1 170341Z 16011KT 12/M01 A2998 RMK A01 T01241005  RH  041%=      5-min Rain = 0
KWE1 170342Z 17013KT 12/M01 A2998 RMK A01 T01241005  RH  041%=      5-min Rain = 0
KWE1 170343Z 16011KT 12/M01 A2998 RMK A01 T01241005  RH  041%=      5-min Rain = 0
KWE1 170344Z 16011KT 12/M00 A2998 RMK A01 T01241004  RH  041%=      5-min Rain = 0
KWE1 170345Z 16012KT 12/M00 A2998 RMK A01 T01241004  RH  041%=      5-min Rain = 0
KWE1 170346Z 17010KT 12/M01 A2998 RMK A01 T01241005  RH  041%=      5-min Rain = 0
KWE1 170347Z 17012G17KT 12/M00 A2998 RMK A01 T01231004  RH  041%=      5-min Rain = 0
KWE1 170348Z 16011KT 12/M00 A2998 RMK A01 T01231004  RH  041%=      5-min Rain = 0
KWE1 170349Z 16011KT 12/M00 A2998 RMK A01 T01231004  RH  041%=      5-min Rain = 0
KWE1 170350Z 16011KT 12/M00 A2998 RMK A01 T01221004  RH  042%=      5-min Rain = 0
KWE1 170351Z 16011KT 12/M01 A2998 RMK A01 T01211005  RH  042%=      5-min Rain = 0
KWE1 170352Z 16011KT 12/M00 A2997 RMK A01 T01211004  RH  042%=      5-min Rain = 0
KWE1 170353Z 16011KT 12/M00 A2997 RMK A01 T01201004  RH  042%=      5-min Rain = 0
KWE1 170354Z 16013KT 12/M00 A2997 RMK A01 T01201004  RH  042%=      5-min Rain = 0
KWE1 170355Z 16012KT 12/M00 A2997 RMK A01 T01191004  RH  043%=      5-min Rain = 0
KWE1 170356Z 16011KT 12/M00 A2997 RMK A01 T01191004  RH  043%=      5-min Rain = 0
KWE1 170357Z 16011KT 12/M00 A2997 RMK A01 T01181004  RH  043%=      5-min Rain = 0
KWE1 170358Z 16011KT 12/M00 A2997 RMK A01 T01181004  RH  043%=      5-min Rain = 0
KWE1 170359Z 16011KT 12/M00 A2997 RMK A01 T01171004  RH  043%=      5-min Rain = 0
KWE1 170400Z 16012KT 12/M00 A2997 RMK A01 T01171004  RH  043%=      5-min Rain = 0
KWE1 170401Z 16010KT 12/M00 A2997 RMK A01 T01161004  RH  043%=      5-min Rain = 0
KWE1 170402Z 17010KT 12/M00 A2997 RMK A01 T01161003  RH  044%=      5-min Rain = 0
KWE1 170403Z 16010KT 12/M00 A2997 RMK A01 T01161003  RH  044%=      5-min Rain = 0
KWE1 170404Z 16010KT 12/M00 A2997 RMK A01 T01161003  RH  044%=      5-min Rain = 0
KWE1 170405Z 16012KT 12/M00 A2997 RMK A01 T01151003  RH  044%=      5-min Rain = 0
KWE1 170406Z 16012KT 12/M00 A2997 RMK A01 T01151003  RH  044%=      5-min Rain = 0
KWE1 170407Z 16011KT 12/M00 A2998 RMK A01 T01151003  RH  044%=      5-min Rain = 0
KWE1 170408Z 16012KT 12/M00 A2998 RMK A01 T01161003  RH  044%=      5-min Rain = 0
KWE1 170409Z 16010KT 12/M00 A2998 RMK A01 T01161003  RH  044%=      5-min Rain = 0
KWE1 170410Z 17009KT 12/M00 A2998 RMK A01 T01151003  RH  044%=      5-min Rain = 0
KWE1 170411Z 16012KT 12/M00 A2998 RMK A01 T01151002  RH  044%=      5-min Rain = 0
KWE1 170412Z 17010KT 12/M00 A2998 RMK A01 T01151003  RH  044%=      5-min Rain = 0
KWE1 170413Z 17010KT 11/M00 A2998 RMK A01 T01141002  RH  044%=      5-min Rain = 0
KWE1 170414Z 16011KT 11/M00 A2998 RMK A01 T01141002  RH  045%=      5-min Rain = 0
KWE1 170415Z 16012KT 11/M00 A2998 RMK A01 T01141002  RH  045%=      5-min Rain = 0
KWE1 170416Z 16010KT 11/M00 A2998 RMK A01 T01141002  RH  045%=      5-min Rain = 0
KWE1 170417Z 16010KT 11/M00 A2998 RMK A01 T01131002  RH  045%=      5-min Rain = 0
KWE1 170418Z 17010KT 11/M00 A2998 RMK A01 T01121002  RH  045%=      5-min Rain = 0
KWE1 170419Z 16012KT 11/M00 A2998 RMK A01 T01121002  RH  045%=      5-min Rain = 0
KWE1 170420Z 16011KT 11/M00 A2998 RMK A01 T01121001  RH  045%=      5-min Rain = 0
KWE1 170421Z 16012KT 11/M00 A2998 RMK A01 T01121001  RH  045%=      5-min Rain = 0
KWE1 170422Z 16012KT 11/M00 A2998 RMK A01 T01121001  RH  046%=      5-min Rain = 0
KWE1 170423Z 17012KT 11/M00 A2998 RMK A01 T01131001  RH  046%=      5-min Rain = 0
KWE1 170424Z 17012KT 11/M00 A2997 RMK A01 T01131001  RH  046%=      5-min Rain = 0
KWE1 170425Z 16011KT 11/M00 A2997 RMK A01 T01131001  RH  046%=      5-min Rain = 0
KWE1 170426Z 16011KT 11/00 A2997 RMK A01 T011300-0  RH  046%=      5-min Rain = 0
KWE1 170427Z 16012KT 11/00 A2997 RMK A01 T011200-0  RH  046%=      5-min Rain = 0
KWE1 170428Z 17010KT 11/00 A2997 RMK A01 T011200-0  RH  046%=      5-min Rain = 0
KWE1 170429Z 17011KT 11/00 A2997 RMK A01 T01120000  RH  046%=      5-min Rain = 0
KWE1 170430Z 17011KT 11/00 A2997 RMK A01 T01120000  RH  046%=      5-min Rain = 0
KWE1 170431Z 17011KT 11/00 A2997 RMK A01 T01120000  RH  046%=      5-min Rain = 0
KWE1 170432Z 17013KT 11/00 A2997 RMK A01 T01130001  RH  046%=      5-min Rain = 0
KWE1 170433Z 17012KT 11/00 A2997 RMK A01 T01140001  RH  046%=      5-min Rain = 0
KWE1 170434Z 17011KT 11/00 A2997 RMK A01 T01130001  RH  046%=      5-min Rain = 0
KWE1 170435Z 17011KT 11/00 A2997 RMK A01 T01130001  RH  046%=      5-min Rain = 0
KWE1 170436Z 17011KT 11/00 A2997 RMK A01 T01130001  RH  046%=      5-min Rain = 0
KWE1 170437Z 17012KT 11/00 A2997 RMK A01 T01130001  RH  046%=      5-min Rain = 0
KWE1 170438Z 17014KT 11/00 A2997 RMK A01 T01130001  RH  046%=      5-min Rain = 0
KWE1 170439Z 17011KT 11/00 A2998 RMK A01 T01140002  RH  046%=      5-min Rain = 0
KWE1 170440Z 17012KT 11/00 A2998 RMK A01 T01140002  RH  046%=      5-min Rain = 0
KWE1 170441Z 17012KT 11/00 A2998 RMK A01 T01140002  RH  046%=      5-min Rain = 0
KWE1 170442Z 17011KT 11/00 A2998 RMK A01 T01130002  RH  046%=      5-min Rain = 0
KWE1 170443Z 17011KT 11/00 A2998 RMK A01 T01130002  RH  046%=      5-min Rain = 0
KWE1 170444Z 17012KT 11/00 A2998 RMK A01 T01130002  RH  047%=      5-min Rain = 0
KWE1 170445Z 17011KT 11/00 A2998 RMK A01 T01130002  RH  046%=      5-min Rain = 0
KWE1 170446Z 17010KT 11/00 A2998 RMK A01 T01130002  RH  046%=      5-min Rain = 0
KWE1 170447Z 17011KT 11/00 A2998 RMK A01 T01120002  RH  047%=      5-min Rain = 0
KWE1 170448Z 17011KT 11/00 A2998 RMK A01 T01120002  RH  047%=      5-min Rain = 0
KWE1 170449Z 17012KT 11/00 A2998 RMK A01 T01120002  RH  047%=      5-min Rain = 0
KWE1 170450Z 17010KT 11/00 A2998 RMK A01 T01110002  RH  047%=      5-min Rain = 0
KWE1 170451Z 17011KT 11/00 A2998 RMK A01 T01100002  RH  047%=      5-min Rain = 0
KWE1 170452Z 17009KT 11/00 A2998 RMK A01 T01100002  RH  047%=      5-min Rain = 0
KWE1 170453Z 17011KT 11/00 A2998 RMK A01 T01100003  RH  047%=      5-min Rain = 0
KWE1 170454Z 17012KT 11/00 A2998 RMK A01 T01100003  RH  048%=      5-min Rain = 0
KWE1 170455Z 17010G15KT 11/00 A2998 RMK A01 T01090003  RH  048%=      5-min Rain = 0
KWE1 170456Z 17011KT 11/00 A2998 RMK A01 T01090003  RH  048%=      5-min Rain = 0
KWE1 170457Z 17010KT 11/00 A2998 RMK A01 T01090003  RH  048%=      5-min Rain = 0
KWE1 170458Z 17011KT 11/00 A2998 RMK A01 T01090003  RH  048%=      5-min Rain = 0
KWE1 170459Z 17011KT 11/00 A2998 RMK A01 T01090002  RH  048%=      5-min Rain = 0
KWE1 170500Z 17010KT 11/00 A2998 RMK A01 T01090002  RH  048%=      5-min Rain = 0
KWE1 170501Z 17011KT 11/00 A2998 RMK A01 T01100003  RH  048%=      5-min Rain = 0
KWE1 170502Z 17010KT 11/00 A2998 RMK A01 T01100003  RH  048%=      5-min Rain = 0
KWE1 170503Z 17011KT 11/00 A2998 RMK A01 T01100003  RH  048%=      5-min Rain = 0
KWE1 170504Z 17010KT 11/00 A2998 RMK A01 T01100003  RH  048%=      5-min Rain = 0
KWE1 170505Z 17011KT 11/00 A2998 RMK A01 T01100003  RH  048%=      5-min Rain = 0
KWE1 170506Z 18011KT 11/00 A2998 RMK A01 T01090003  RH  048%=      5-min Rain = 0
KWE1 170507Z 17010KT 11/00 A2998 RMK A01 T01100003  RH  048%=      5-min Rain = 0
KWE1 170508Z 17011KT 11/00 A2998 RMK A01 T01100003  RH  048%=      5-min Rain = 0
KWE1 170509Z 17013KT 11/00 A2998 RMK A01 T01100003  RH  048%=      5-min Rain = 0
KWE1 170510Z 17010KT 11/00 A2998 RMK A01 T01100004  RH  048%=      5-min Rain = 0
KWE1 170511Z 17011KT 11/00 A2998 RMK A01 T01110004  RH  048%=      5-min Rain = 0
KWE1 170512Z 17010KT 11/00 A2998 RMK A01 T01100004  RH  048%=      5-min Rain = 0
KWE1 170513Z 17012KT 11/00 A2998 RMK A01 T01100004  RH  048%=      5-min Rain = 0
KWE1 170514Z 17011KT 11/01 A2998 RMK A01 T01100005  RH  048%=      5-min Rain = 0
KWE1 170515Z 17011KT 11/00 A2998 RMK A01 T01100004  RH  048%=      5-min Rain = 0
KWE1 170516Z 17011KT 11/01 A2998 RMK A01 T01100005  RH  048%=      5-min Rain = 0
KWE1 170517Z 17011KT 11/01 A2998 RMK A01 T01090005  RH  048%=      5-min Rain = 0
KWE1 170518Z 17009KT 11/01 A2998 RMK A01 T01090005  RH  049%=      5-min Rain = 0
KWE1 170519Z 17011KT 11/01 A2998 RMK A01 T01080005  RH  049%=      5-min Rain = 0
KWE1 170520Z 17011KT 11/01 A2998 RMK A01 T01080005  RH  049%=      5-min Rain = 0
KWE1 170521Z 17010KT 11/01 A2998 RMK A01 T01080005  RH  049%=      5-min Rain = 0
KWE1 170522Z 17009KT 11/01 A2998 RMK A01 T01080006  RH  049%=      5-min Rain = 0
KWE1 170523Z 17010KT 11/01 A2998 RMK A01 T01080006  RH  049%=      5-min Rain = 0
KWE1 170524Z 17011KT 11/01 A2998 RMK A01 T01080006  RH  049%=      5-min Rain = 0
KWE1 170525Z 17010KT 11/01 A2998 RMK A01 T01080006  RH  050%=      5-min Rain = 0
KWE1 170526Z 17012KT 11/01 A2998 RMK A01 T01080007  RH  050%=      5-min Rain = 0
KWE1 170527Z 17011KT 11/01 A2998 RMK A01 T01080007  RH  050%=      5-min Rain = 0
KWE1 170528Z 17011KT 11/01 A2998 RMK A01 T01090007  RH  050%=      5-min Rain = 0
KWE1 170529Z 17011KT 11/01 A2998 RMK A01 T01080007  RH  050%=      5-min Rain = 0
KWE1 170530Z 18010KT 11/01 A2998 RMK A01 T01080007  RH  050%=      5-min Rain = 0
KWE1 170531Z 17009KT 11/01 A2998 RMK A01 T01080008  RH  050%=      5-min Rain = 0
KWE1 170532Z 17010KT 11/01 A2998 RMK A01 T01080008  RH  050%=      5-min Rain = 0
KWE1 170533Z 17009KT 11/01 A2998 RMK A01 T01070007  RH  050%=      5-min Rain = 0
KWE1 170534Z 17009KT 11/01 A2998 RMK A01 T01070008  RH  050%=      5-min Rain = 0
KWE1 170535Z 18010KT 11/01 A2998 RMK A01 T01060008  RH  051%=      5-min Rain = 0
KWE1 170536Z 18010KT 11/01 A2998 RMK A01 T01060008  RH  051%=      5-min Rain = 0
KWE1 170537Z 18010KT 11/01 A2998 RMK A01 T01060008  RH  051%=      5-min Rain = 0
KWE1 170538Z 18010KT 11/01 A2998 RMK A01 T01070009  RH  051%=      5-min Rain = 0
KWE1 170539Z 17010KT 11/01 A2998 RMK A01 T01080009  RH  050%=      5-min Rain = 0
KWE1 170540Z 17009KT 11/01 A2998 RMK A01 T01080009  RH  050%=      5-min Rain = 0
KWE1 170541Z 17009KT 11/01 A2998 RMK A01 T01070008  RH  051%=      5-min Rain = 0
KWE1 170542Z 18009KT 11/01 A2998 RMK A01 T01070008  RH  051%=      5-min Rain = 0
KWE1 170543Z 18009KT 11/01 A2998 RMK A01 T01070009  RH  051%=      5-min Rain = 0
KWE1 170544Z 18008KT 11/01 A2998 RMK A01 T01070009  RH  051%=      5-min Rain = 0
KWE1 170545Z 18010KT 11/01 A2998 RMK A01 T01070009  RH  051%=      5-min Rain = 0
KWE1 170546Z 17009KT 11/01 A2998 RMK A01 T01070010  RH  051%=      5-min Rain = 0
KWE1 170547Z 17009KT 11/01 A2998 RMK A01 T01080010  RH  051%=      5-min Rain = 0
KWE1 170548Z 17009KT 11/01 A2998 RMK A01 T01070009  RH  051%=      5-min Rain = 0
KWE1 170549Z 17008KT 11/01 A2998 RMK A01 T01070010  RH  051%=      5-min Rain = 0
KWE1 170550Z 17008KT 11/01 A2998 RMK A01 T01060010  RH  051%=      5-min Rain = 0
KWE1 170551Z 16009KT 11/01 A2998 RMK A01 T01070010  RH  051%=      5-min Rain = 0
KWE1 170552Z 17008KT 11/01 A2998 RMK A01 T01060010  RH  051%=      5-min Rain = 0
KWE1 170553Z 17009KT 11/01 A2998 RMK A01 T01070011  RH  051%=      5-min Rain = 0
KWE1 170554Z 17009KT 11/01 A2998 RMK A01 T01070010  RH  051%=      5-min Rain = 0
KWE1 170555Z 17008KT 11/01 A2998 RMK A01 T01070010  RH  051%=      5-min Rain = 0
KWE1 170556Z 17008KT 11/01 A2998 RMK A01 T01070011  RH  051%=      5-min Rain = 0
KWE1 170557Z 17009KT 11/01 A2998 RMK A01 T01070011  RH  052%=      5-min Rain = 0
KWE1 170558Z 17008KT 11/01 A2998 RMK A01 T01070012  RH  052%=      5-min Rain = 0
KWE1 170559Z 17009KT 11/01 A2998 RMK A01 T01070012  RH  052%=      5-min Rain = 0

Page generated in 0.0817 seconds.